[{"header": {"dx": 0.06612293990616946, "dy": 0.0552356325346848, "nx": 98, "ny": 59, "la1": 35.046912555036876, "la2": 31.78801023549047, "lo1": -121.43107172385933, "lo2": -114.95102361305473, "refTime": "2026041107", "parameterCategory": 1, "parameterNumber": 2}, "data": [3.84, 3.47, 3.47, 3.47, 3.45, 2.8, 2.32, 1.14, 0.58, -0.0, -0.0, -0.0, -0.79, -0.87, -0.0, -0.0, -0.0, 0.71, 1.41, 2.2, 2.4, 1.98, 2.41, 2.07, 1.6, 1.33, 0.76, -0.0, -0.65, -1.88, -3.2, -4.41, -4.47, -3.13, -2.12, -1.9, 0.0, 0.85, 1.74, 2.6, 3.04, 2.68, 2.6, 2.98, 4.82, 6.07, 6.55, 6.55, 5.86, 5.43, 4.81, 4.43, 4.43, 4.74, 4.74, 4.81, 4.81, 4.84, 4.8, 4.8, 5.34, 6.28, 8.14, 9.11, 8.91, 8.91, 8.4, 7.71, 7.28, 8.4, 9.33, 8.82, 7.21, 3.95, 3.07, 4.87, 4.87, 2.68, 0.0, -1.33, -2.3, -2.4, -3.11, -2.29, -1.41, 0.0, 0.76, 2.2, 3.43, 6.44, 8.3, 9.3, 10.28, 11.44, 11.44, 11.75, 10.68, 8.63, 4.12, 3.84, 3.47, 3.47, 3.72, 3.45, 2.8, 1.67, 1.14, 0.53, 0.53, -0.0, -0.0, -0.7, -1.27, -0.0, -0.0, -0.0, 1.27, 1.66, 2.4, 2.6, 1.8, 1.99, 1.66, 1.49, 0.65, -0.0, -0.0, -1.4, -1.9, -3.07, -3.58, -3.51, -3.07, -1.86, -1.0, 0.0, 1.49, 2.12, 2.68, 3.04, 4.34, 4.85, 5.77, 6.66, 6.55, 5.59, 4.4, 3.84, 3.84, 3.79, 4.46, 5.09, 4.46, 4.46, 4.4, 4.4, 4.4, 4.8, 5.59, 6.98, 7.28, 7.47, 7.35, 8.0, 8.4, 7.71, 6.79, 7.71, 8.91, 9.08, 8.3, 6.79, 5.16, 5.16, 5.31, 2.68, 0.0, -1.33, -2.3, -2.4, -3.11, -2.29, -1.41, 0.0, 0.76, 2.2, 3.43, 6.44, 8.3, 9.3, 10.28, 11.44, 11.44, 11.75, 10.68, 8.63, 4.12, 3.84, 3.47, 3.47, 3.47, 3.47, 2.8, 2.16, 1.14, 0.53, 0.53, 0.54, -0.0, -0.87, -0.87, -0.76, -0.0, -0.0, 0.98, 2.2, 1.66, 2.73, 1.3, 2.32, 3.22, 2.2, 0.65, -0.0, -0.65, -0.7, -0.76, -1.2, -1.86, -2.12, -2.12, -1.79, -0.89, 0.0, 1.26, 1.86, 2.63, 3.58, 5.36, 5.81, 5.81, 6.21, 5.75, 4.24, 3.2, 2.8, 2.86, 3.83, 3.83, 4.4, 3.74, 3.32, 3.74, 3.74, 4.24, 4.66, 5.59, 5.59, 5.34, 5.43, 6.07, 7.67, 8.67, 9.03, 7.89, 6.79, 7.71, 8.4, 8.82, 7.47, 5.59, 6.21, 6.22, 2.68, -1.0, -2.51, -2.51, -2.3, -2.88, -3.33, -2.2, -0.69, 0.72, 1.55, 3.64, 7.02, 9.3, 9.92, 9.92, 10.9, 10.87, 10.01, 7.89, 5.36, 4.43, 4.12, 3.84, 3.47, 3.47, 3.47, 3.47, 2.36, 1.84, 1.16, 0.59, 0.59, -0.0, -0.0, -0.87, -0.76, -0.0, -0.0, 0.87, 1.8, 1.4, 1.4, 1.13, 1.8, 2.41, 2.95, 1.2, -0.0, -0.65, -0.76, -0.79, -1.41, -1.47, -0.0, -0.0, -0.0, 0.85, 0.95, 1.6, 1.86, 2.8, 3.95, 4.47, 4.92, 5.31, 5.75, 4.85, 3.04, 2.12, 2.12, 2.4, 3.2, 3.51, 3.51, 2.6, 2.6, 3.04, 3.04, 3.74, 4.66, 4.66, 3.45, 3.48, 3.48, 5.37, 7.27, 9.23, 10.47, 10.45, 8.66, 7.21, 6.51, 6.98, 6.85, 5.32, 4.92, 6.21, 3.07, -1.2, -3.48, -3.16, -2.84, -2.79, -3.64, -3.64, -1.47, 0.0, 1.41, 3.91, 7.52, 9.23, 9.27, 9.27, 9.3, 6.79, 4.47, 4.87, 5.64, 4.43, 4.12, 3.84, 3.84, 3.47, 3.47, 3.47, 2.82, 2.36, 1.16, 0.59, 0.54, -0.0, -0.0, -0.87, -0.76, -0.0, -0.0, -0.0, 0.79, 1.19, 1.27, 1.13, 0.8, 0.71, 0.85, 0.99, -0.0, -0.0, -0.65, -1.49, -2.41, -2.98, -1.47, -0.0, 2.2, 2.2, 3.58, 3.13, 2.6, 2.4, 3.13, 3.07, 4.24, 4.73, 4.87, 4.41, 3.04, 2.54, 2.23, 2.6, 3.04, 2.68, 2.12, 2.54, 2.8, 3.04, 3.2, 4.24, 4.24, 3.2, 1.9, 2.15, 3.22, 4.6, 6.09, 8.66, 10.75, 12.09, 11.87, 9.3, 6.64, 6.13, 6.4, 6.79, 4.92, 3.74, 2.5, -0.54, -4.12, -4.12, -2.84, -2.84, -4.46, -4.65, -2.29, 0.0, 2.4, 4.92, 6.97, 7.9, 7.97, 7.33, 3.51, 2.5, 4.46, 6.36, 6.55, 4.43, 4.12, 4.12, 3.84, 3.47, 3.47, 3.47, 2.82, 2.36, 1.7, 1.16, 0.54, 0.79, -0.0, -0.85, -0.71, -0.0, -0.0, -0.0, 0.87, 0.88, 0.81, -0.0, 1.14, 1.05, 1.14, 1.32, 1.1, 1.23, -0.0, -0.0, -3.2, -2.4, -1.86, -0.0, 1.6, 2.6, 4.4, 4.73, 2.24, 1.34, 1.86, 3.49, 5.43, 5.6, 5.34, 4.66, 3.32, 3.2, 3.2, 2.8, 2.6, 2.12, 2.12, 2.4, 3.74, 3.74, 3.74, 4.66, 4.66, 2.23, 0.85, 1.55, 2.4, 3.11, 5.51, 7.79, 9.6, 11.7, 13.35, 12.84, 9.66, 7.64, 8.94, 10.87, 10.68, 3.58, 0.0, -1.2, -3.14, -4.46, -3.48, -3.16, -4.46, -4.65, -2.26, 0.76, 4.07, 5.41, 5.52, 6.24, 6.32, 3.07, 1.88, 2.48, 5.43, 7.01, 6.21, 4.43, 4.43, 4.12, 4.12, 4.12, 3.47, 3.47, 3.47, 2.82, 1.7, 1.16, 1.19, 0.79, -0.0, -1.4, -1.0, -0.0, -0.0, -0.0, -0.0, 0.85, -0.0, -0.87, -0.0, 1.14, 1.23, 1.23, 1.1, 2.32, 2.53, 1.6, -0.85, -1.74, -0.8, -0.0, 0.85, 3.6, 4.34, 4.98, 2.12, 0.63, 0.6, 1.9, 4.98, 6.4, 6.0, 5.43, 4.4, 3.2, 5.2, 4.98, 3.2, 3.2, 2.4, 3.04, 3.51, 3.95, 3.51, 3.58, 2.6, 1.24, 0.79, 0.72, 1.44, 2.35, 4.8, 7.73, 8.76, 10.12, 13.46, 14.76, 11.9, 8.58, 9.84, 11.75, 14.17, 8.4, 0.0, -2.53, -2.15, -3.79, -3.64, -3.64, -3.64, -2.9, -0.67, 1.54, 3.78, 4.5, 4.12, 3.47, 2.5, 1.2, 1.41, 3.16, 6.07, 7.11, 5.32, 4.43, 4.43, 4.12, 4.12, 4.12, 4.12, 3.76, 3.22, 2.82, 2.18, 1.55, 1.19, 1.66, 0.87, -0.0, -1.0, -0.0, -0.0, -0.0, 0.8, 0.95, 0.0, -0.89, -1.2, -0.0, 1.27, -0.0, 1.27, 3.79, 4.11, 1.41, -0.0, -1.41, -0.0, -0.0, 0.8, 1.79, 4.47, 4.82, 3.04, 1.2, -0.0, 0.89, 4.02, 4.34, 6.23, 6.4, 5.82, 4.8, 4.8, 3.83, 2.8, 3.74, 3.74, 3.51, 3.51, 3.13, 2.68, 2.68, 1.2, 0.85, -0.0, -0.0, 1.49, 2.4, 4.12, 6.88, 8.65, 10.28, 13.04, 14.95, 13.35, 10.25, 8.82, 9.36, 11.6, 11.4, 2.24, -1.61, -1.88, -1.84, -3.32, -2.9, -2.06, -0.67, 0.0, 2.01, 3.15, 3.2, 2.0, 1.2, 0.99, 0.66, 2.07, 4.0, 6.55, 6.22, 4.87, 4.71, 4.43, 4.43, 4.12, 4.12, 4.12, 4.12, 3.49, 3.08, 2.4, 1.73, 1.08, 1.19, 1.83, 0.98, -0.0, -0.0, -0.0, -0.0, 1.0, 1.58, -0.0, 0.45, -0.63, -0.0, -0.0, -0.0, -0.0, 2.84, 2.4, -0.0, -0.0, -1.6, -0.0, 1.2, 1.34, 1.26, 1.86, 3.13, 3.13, 1.6, -0.0, 0.45, 2.24, 3.58, 4.38, 5.81, 5.36, 4.43, 4.19, 4.65, 2.6, 3.13, 3.58, 4.02, 3.58, 3.58, 3.13, 1.34, -0.0, -0.0, -0.0, -0.0, 0.82, 1.7, 4.01, 7.07, 9.6, 10.52, 12.8, 14.7, 13.88, 11.52, 8.49, 8.01, 8.36, 9.39, 5.36, 0.0, -2.15, -1.9, -2.2, -1.88, -1.3, -0.67, 0.0, 0.61, 0.7, 0.65, 0.99, 1.2, 1.16, 1.13, 2.53, 4.4, 6.98, 6.66, 4.43, 4.71, 4.71, 4.43, 4.43, 4.12, 4.12, 4.12, 3.49, 3.49, 2.84, 2.2, 1.76, 1.8, 1.8, 2.0, 0.87, -0.0, -0.0, -0.0, 1.2, 1.2, 1.2, 1.2, -0.0, -0.0, 1.26, 1.34, 0.45, -0.0, 1.41, 1.27, -0.0, -1.2, 1.34, 1.34, 2.68, 1.79, 1.49, 2.54, 2.68, 1.7, 0.8, 1.34, 1.79, 2.68, 3.6, 4.22, 5.21, 5.82, 5.46, 4.81, 3.2, 2.68, 2.6, 3.2, 3.74, 3.32, 3.04, 0.89, -0.0, -0.0, -0.0, 1.07, 1.7, 2.41, 2.6, 6.21, 9.36, 11.15, 12.05, 13.39, 13.78, 11.99, 9.39, 8.02, 7.76, 7.47, 6.28, 1.9, -0.54, -0.6, 0.0, 0.0, 0.6, 0.63, 0.89, 0.63, 0.63, 0.89, 0.89, 1.24, 1.16, 1.4, 1.88, 4.0, 7.45, 7.12, 4.41, 4.71, 4.71, 4.71, 4.43, 4.12, 4.12, 4.12, 3.83, 3.49, 3.22, 2.86, 2.22, 1.8, 1.84, 1.8, 0.87, -0.0, -0.0, 0.6, 1.26, 2.0, 2.4, 2.54, 2.4, 2.68, 2.24, 2.24, 1.79, 1.34, 1.9, 2.8, 1.2, 0.85, -0.0, -0.0, 1.9, 3.2, 1.79, 1.79, 3.95, 2.6, 1.0, 1.6, 2.68, 2.8, 3.2, 4.15, 5.09, 4.8, 4.81, 4.95, 4.95, 3.72, 2.84, 1.79, 1.24, 0.76, 0.0, -0.0, -0.0, -0.0, 0.74, 1.6, 3.33, 4.81, 4.41, 6.21, 7.89, 9.54, 10.93, 11.84, 11.99, 11.62, 10.26, 8.84, 8.24, 5.94, 3.45, 1.2, 0.0, -0.63, 0.89, 2.4, 2.91, 3.49, 3.14, 2.5, 2.12, 1.2, 1.2, 1.26, 1.26, 1.24, 2.15, 4.41, 8.01, 7.12, 4.24, 4.71, 4.71, 4.71, 4.71, 4.71, 4.12, 4.12, 3.83, 3.83, 3.49, 3.12, 2.86, 2.23, 2.51, 2.53, 1.88, 1.24, -0.0, 0.63, 1.2, 2.24, 2.68, 3.13, 4.47, 4.02, 4.47, 4.92, 4.02, 2.24, 1.79, 3.13, 1.26, 1.58, 1.98, 1.0, 2.0, 2.23, 1.26, 2.0, 1.9, 1.74, 1.74, 1.9, 2.8, 2.53, 2.84, 3.79, 3.79, 2.73, 2.32, 3.06, 4.01, 3.96, 3.07, 2.28, 1.72, -0.0, -2.4, -3.2, -1.52, 0.77, 2.4, 2.35, 3.11, 4.95, 5.43, 6.44, 5.86, 5.36, 7.11, 8.49, 8.38, 8.06, 8.63, 7.45, 3.51, 1.2, 0.0, -0.6, -1.34, -1.34, -0.0, 1.9, 3.49, 4.07, 5.06, 5.31, 3.32, 2.4, 2.17, 1.79, 1.34, 0.89, 2.24, 4.47, 7.6, 5.36, 3.39, 4.71, 4.71, 4.71, 4.71, 4.71, 4.71, 4.43, 3.83, 3.83, 4.11, 3.49, 3.2, 2.86, 2.84, 2.84, 2.79, 2.21, 1.24, 1.2, 1.34, 2.24, 3.13, 4.02, 4.47, 4.92, 5.36, 6.26, 6.71, 6.71, 5.81, 4.92, 3.6, 1.58, 2.53, 2.21, 2.21, 1.49, 1.9, 0.8, 0.8, -0.0, 0.99, 0.99, 0.76, 1.27, 1.05, 1.32, 2.49, 1.32, 1.25, 1.52, 1.43, 0.7, 0.74, 2.28, 3.47, 5.8, 4.66, -0.0, -1.6, 0.75, 3.21, 3.2, 2.64, 2.35, 3.91, 5.02, 4.61, 3.85, 5.4, 9.49, 7.82, 1.79, 0.71, 1.7, 0.0, -2.24, -2.24, -1.2, -0.6, -0.6, -0.0, 1.58, 1.9, 3.72, 5.43, 6.7, 6.25, 5.69, 6.13, 5.2, 2.24, 1.2, 2.17, 3.97, 6.26, 4.02, 2.91, 5.21, 4.71, 4.71, 4.71, 4.71, 4.71, 4.71, 4.71, 4.11, 4.11, 4.11, 3.49, 3.48, 3.43, 3.43, 3.35, 3.14, 2.5, 1.86, 1.7, 2.68, 3.13, 4.02, 4.47, 4.92, 5.81, 6.26, 7.15, 7.6, 7.15, 6.26, 5.29, 4.09, 2.84, 2.53, 2.21, 1.74, 1.9, 1.6, -0.0, -0.0, -0.0, -0.0, -0.0, -0.0, -0.0, 0.82, 1.23, 1.1, 1.1, -0.0, -0.0, -0.0, -0.0, 1.25, 2.12, 4.36, 9.2, 6.67, -0.0, -0.0, 2.13, 2.28, 1.16, 0.76, 1.55, 2.23, 3.01, 5.2, 6.42, 10.01, 13.15, 4.71, -2.4, -2.6, -2.24, -2.68, -1.86, -0.0, 0.65, 1.49, 1.9, 2.15, 0.71, 1.84, 5.06, 7.69, 7.69, 7.59, 9.14, 10.13, 7.01, 4.02, 2.68, 3.53, 4.02, 3.13, 3.07, 5.21, 4.71, 4.71, 4.71, 4.71, 4.71, 4.71, 4.71, 4.71, 4.37, 4.11, 3.79, 4.07, 3.78, 3.43, 3.72, 3.72, 3.6, 2.91, 2.6, 2.68, 3.13, 4.02, 4.47, 4.92, 5.81, 6.26, 6.71, 7.13, 7.58, 7.13, 5.34, 4.8, 4.8, 4.09, 3.72, 3.35, 3.04, 3.13, 0.0, -1.0, -1.6, -0.0, -0.0, -0.0, -0.0, -0.0, -0.0, -0.0, -0.0, -0.0, -0.0, -0.0, -0.0, -0.0, -0.0, 2.16, 5.78, 7.44, 3.25, -0.0, 1.11, 1.09, -0.0, -0.0, -0.0, -0.0, 2.16, 4.48, 5.64, 6.21, 11.08, 14.22, 2.5, -3.45, -3.2, -1.7, -0.0, 0.65, 3.07, 4.81, 5.09, 4.37, 0.65, -0.53, 2.07, 6.01, 7.97, 8.59, 10.28, 11.75, 11.09, 7.94, 5.77, 5.31, 3.58, 3.13, 3.13, 5.21, 4.94, 4.71, 4.71, 4.71, 4.71, 4.71, 4.71, 4.71, 4.71, 4.37, 4.11, 4.07, 4.07, 4.0, 4.0, 4.27, 3.88, 3.6, 3.32, 3.07, 3.53, 4.02, 4.47, 5.36, 5.81, 6.26, 6.68, 6.68, 7.13, 6.68, 5.81, 4.6, 4.8, 4.8, 2.8, 2.54, 4.02, 3.13, -2.24, -2.21, -0.8, -0.0, -0.0, -0.0, -0.0, -0.0, -0.0, -0.0, -0.0, -0.0, -0.0, -0.0, -0.0, -0.0, -0.0, 1.19, 3.76, 4.71, 3.35, 0.79, -0.0, -0.0, -1.14, -1.14, -1.11, -0.0, 1.16, 4.54, 5.69, 5.38, 8.58, 15.28, 16.44, 5.36, 0.89, 1.26, 2.23, 3.22, 4.46, 6.94, 7.47, 6.7, 1.9, -0.71, -1.24, 1.33, 5.37, 8.06, 9.74, 12.14, 9.62, 7.01, 6.58, 7.48, 4.47, 3.13, 3.13, 5.21, 4.94, 4.94, 4.71, 4.71, 4.71, 4.71, 4.71, 4.71, 4.71, 4.71, 4.37, 4.41, 4.07, 4.07, 4.37, 4.27, 3.88, 4.11, 3.6, 3.82, 3.82, 3.98, 4.47, 4.92, 5.36, 5.81, 6.26, 6.23, 6.23, 5.34, 4.92, 4.34, 5.7, 3.74, 3.74, 5.2, 5.2, 2.21, -1.6, -2.73, -0.76, -0.0, -0.0, -0.0, -0.0, -0.0, -0.0, -0.0, -0.0, -0.0, -0.0, -0.0, -0.0, -0.0, -0.0, 1.41, 3.16, 3.79, 4.02, 3.45, 2.16, -0.0, -1.23, -3.4, -2.64, -2.26, -0.0, 3.45, 7.96, 9.67, 9.89, 14.11, 17.04, 15.19, 10.8, 9.9, 10.87, 10.15, 8.19, 7.89, 7.56, 5.36, 2.17, -0.4, -1.2, -0.0, 4.4, 8.19, 11.4, 13.25, 10.05, 6.22, 6.22, 7.56, 5.32, 3.07, 3.07, 5.21, 4.94, 4.94, 4.94, 4.94, 4.94, 4.71, 4.71, 4.71, 4.71, 4.71, 4.37, 4.65, 4.29, 4.29, 4.55, 4.4, 4.4, 4.4, 4.27, 3.87, 3.53, 3.53, 4.3, 4.88, 4.47, 4.47, 4.47, 4.92, 4.92, 4.47, 4.47, 4.89, 5.33, 5.7, 5.59, 6.02, 5.75, 2.32, -0.0, -2.73, -1.27, -0.0, -0.0, -0.0, -0.0, -0.0, -0.0, -0.0, -0.0, -0.0, -0.0, -0.0, -0.0, -0.0, 1.41, 2.48, 3.16, 3.48, 4.11, 3.49, 2.4, -0.0, -1.23, -3.4, -2.47, -3.22, -2.73, 1.27, 8.22, 11.88, 12.42, 14.22, 15.34, 13.75, 11.53, 12.87, 16.12, 16.69, 13.89, 11.03, 8.82, 3.13, -0.89, -0.89, -0.45, 0.95, 3.07, 6.71, 9.36, 11.84, 10.49, 6.22, 4.92, 5.81, 3.97, 3.51, 3.51, 5.58, 4.94, 4.94, 4.94, 4.94, 4.94, 4.94, 4.94, 4.94, 4.94, 4.94, 5.01, 4.65, 4.65, 4.29, 4.84, 4.55, 4.55, 4.55, 4.8, 3.7, 3.07, 2.4, 3.6, 4.66, 5.2, 3.58, 4.02, 4.92, 4.47, 4.92, 5.36, 5.81, 5.78, 6.23, 6.68, 6.68, 5.6, 4.16, 1.1, -0.76, -0.88, -1.27, -1.41, -0.0, -0.0, -0.0, -0.0, -0.0, -0.0, -0.0, -0.0, -0.0, -0.0, 1.19, 1.41, 2.48, 3.48, 3.48, 3.48, 3.48, 1.41, -0.0, -1.6, -2.51, -3.0, -3.22, -2.21, 0.95, 6.14, 9.39, 12.05, 15.47, 16.69, 13.78, 10.01, 9.6, 13.23, 17.09, 18.15, 14.17, 5.31, 0.0, -1.34, 0.45, 0.0, 0.0, 2.15, 6.21, 7.15, 9.36, 11.4, 8.91, 4.02, 3.51, 3.74, 3.07, 3.07, 5.58, 5.29, 5.29, 4.94, 4.94, 4.94, 4.94, 4.94, 4.94, 4.94, 4.94, 5.21, 5.21, 4.65, 4.93, 4.55, 4.55, 4.55, 5.21, 4.84, 4.8, 2.91, 2.4, 3.47, 4.85, 5.75, 5.75, 5.33, 5.78, 5.78, 6.26, 6.71, 6.71, 6.26, 6.26, 6.71, 7.15, 6.04, 3.83, 1.8, 0.58, -0.0, -0.55, -0.55, -0.0, -0.0, -0.0, -0.0, -0.0, -0.0, -0.0, -0.0, -0.0, -0.0, 0.88, 2.68, 3.48, 2.23, 2.12, 3.82, 1.6, -0.0, -1.14, -1.1, -2.35, -2.29, -1.83, -0.0, 2.68, 5.81, 8.49, 10.28, 14.75, 17.86, 16.97, 12.52, 9.26, 9.72, 15.78, 17.96, 18.16, 11.87, 0.0, -2.91, -1.2, 0.0, 0.0, 1.26, 3.82, 4.73, 6.66, 10.28, 9.39, 3.58, 2.91, 4.24, 4.73, 4.73, 5.75, 5.49, 5.29, 5.29, 5.29, 5.29, 4.94, 4.94, 4.94, 4.94, 5.21, 5.21, 5.21, 4.84, 4.93, 4.93, 4.55, 4.8, 4.8, 5.75, 5.34, 3.88, 3.6, 3.98, 4.88, 5.78, 6.16, 6.61, 7.06, 7.13, 7.13, 7.15, 7.13, 6.68, 6.26, 6.71, 7.15, 6.61, 5.29, 3.42, 1.63, 0.57, -0.0, -0.0, -0.0, -0.0, -0.0, -0.0, -0.0, -1.19, -1.3, -0.0, -0.0, 1.19, 1.19, 2.41, 2.86, 2.4, 3.82, 1.58, -0.0, -2.4, -2.32, -1.23, -1.7, -1.83, -0.98, -0.0, 2.53, 5.43, 8.19, 11.06, 13.84, 15.61, 16.25, 13.96, 9.78, 9.9, 11.45, 14.3, 17.15, 16.54, 7.71, 0.0, -1.7, -0.45, 0.45, 1.2, 3.07, 4.73, 5.59, 7.12, 7.15, 3.51, 2.63, 3.97, 5.32, 5.32, 5.49, 5.49, 5.49, 5.29, 5.29, 5.29, 5.29, 5.29, 5.29, 5.58, 5.58, 5.58, 5.21, 5.21, 4.84, 5.08, 5.08, 5.31, 5.09, 5.51, 5.31, 4.9, 4.6, 4.77, 4.89, 5.78, 6.16, 7.06, 7.07, 7.51, 7.51, 7.13, 7.13, 7.13, 6.68, 6.71, 7.15, 7.06, 5.86, 4.46, 2.89, 1.71, 0.55, -0.0, -0.0, -0.0, -0.0, -0.0, -0.0, -0.0, -0.0, -0.0, -0.0, 1.41, 2.48, 2.73, 3.48, 2.21, 2.53, -1.9, -2.21, -2.53, -2.3, -1.49, -0.88, -0.79, -0.98, -0.87, -0.0, 2.4, 5.72, 11.17, 14.3, 9.72, 5.43, 6.32, 6.98, 6.92, 7.9, 9.7, 12.87, 14.93, 14.68, 9.33, 2.6, 0.45, 0.0, 1.34, 3.07, 4.47, 4.92, 5.36, 6.11, 3.97, 3.13, 3.58, 4.92, 4.92, 5.86, 5.86, 5.49, 5.49, 5.29, 5.29, 5.29, 5.29, 5.29, 5.75, 5.75, 5.75, 5.75, 5.21, 5.21, 5.08, 5.08, 5.31, 5.57, 5.57, 5.51, 4.9, 5.02, 5.09, 5.24, 5.7, 6.16, 6.6, 6.94, 7.4, 7.51, 7.07, 7.07, 7.07, 7.06, 7.13, 7.15, 7.06, 6.03, 5.1, 4.0, 2.71, 1.71, 0.58, -0.0, -0.0, -0.0, -0.0, -0.0, -0.0, -0.0, -0.0, -0.0, 1.27, 2.48, 2.73, 2.53, 2.6, 0.71, -0.6, -2.15, -2.2, -0.88, -0.81, -0.88, -0.0, -0.0, -0.71, -2.2, -2.35, -0.0, 8.23, 11.09, -2.53, -3.16, 1.49, 2.79, 3.79, 4.2, 5.39, 7.95, 10.62, 12.77, 13.29, 11.66, 7.45, 3.13, 2.6, 3.07, 6.07, 5.94, 7.06, 6.85, 5.16, 3.13, 3.58, 4.47, 4.47, 5.86, 5.86, 5.86, 5.49, 5.49, 5.49, 5.49, 5.49, 5.75, 5.75, 5.75, 5.75, 5.75, 5.75, 5.37, 5.47, 5.6, 5.81, 5.81, 5.99, 5.57, 5.09, 4.9, 5.09, 5.09, 5.7, 6.14, 6.6, 6.94, 6.94, 7.4, 7.4, 7.51, 7.51, 7.51, 7.51, 7.58, 6.94, 6.15, 5.36, 4.44, 4.03, 2.23, 1.16, 0.59, -0.0, -0.0, -0.0, 1.14, -0.0, -0.0, -0.0, -0.0, 1.13, 1.27, 2.73, 1.55, 1.72, 2.16, -0.0, -0.65, -1.6, -0.81, -0.0, -0.0, -0.0, -0.0, -0.0, -1.88, -2.84, -1.8, 16.41, 20.86, 8.4, 0.89, 2.53, 4.29, 3.45, 3.14, 3.53, 4.66, 6.98, 9.46, 11.6, 12.07, 9.83, 5.31, 2.86, 3.07, 4.56, 6.7, 6.96, 7.85, 6.64, 3.82, 3.98, 4.43, 4.43, 6.03, 6.03, 5.86, 5.86, 5.49, 5.49, 5.49, 5.49, 5.75, 5.75, 5.75, 5.75, 5.75, 5.75, 5.75, 5.6, 5.6, 5.81, 5.81, 5.81, 5.99, 5.31, 4.9, 4.9, 5.51, 5.57, 6.04, 6.47, 6.51, 6.94, 6.94, 7.4, 7.4, 7.4, 7.4, 7.51, 7.51, 7.01, 5.98, 5.36, 5.09, 4.03, 2.73, 1.73, 0.61, 0.53, 0.59, 0.54, 1.08, 0.57, -0.0, -0.0, -0.0, 1.27, 1.27, 1.55, -0.0, -0.0, -0.0, 2.32, -0.0, -0.71, -0.71, -0.0, -0.0, -0.0, -0.0, -0.0, -1.33, -0.8, 4.47, 11.06, 18.6, 17.9, 13.35, 6.21, 3.14, 2.88, 3.35, 2.28, 2.76, 4.87, 7.61, 9.6, 10.25, 5.36, 2.5, 1.49, 2.2, 2.82, 4.71, 7.61, 8.55, 8.0, 6.36, 4.73, 5.16, 5.16, 6.28, 6.28, 6.03, 5.86, 5.86, 5.49, 5.49, 5.49, 5.75, 5.75, 6.13, 6.13, 6.13, 5.75, 5.75, 6.0, 6.0, 6.23, 6.3, 6.3, 5.81, 5.4, 5.31, 4.9, 5.51, 5.57, 6.04, 6.47, 6.51, 6.94, 6.94, 6.94, 7.4, 7.4, 7.4, 7.51, 7.4, 6.28, 5.69, 5.1, 5.1, 4.71, 2.92, 1.76, 1.14, 0.59, 0.61, 0.63, 0.57, 0.59, -0.0, -0.0, -0.0, 1.19, 1.3, 1.41, -0.0, -1.3, -1.3, -0.0, 2.16, -0.0, -0.0, -0.88, -0.0, -0.0, -0.0, -0.61, -0.0, 0.99, 4.38, 8.67, 12.7, 16.74, 18.39, 16.09, 7.76, 2.04, 0.66, 0.73, 0.76, 2.89, 5.95, 7.31, 4.73, 2.5, 2.2, 2.2, 1.55, 1.98, 3.91, 8.22, 10.15, 9.05, 7.73, 6.54, 7.06, 7.06, 6.28, 6.28, 6.03, 6.03, 6.13, 6.13, 5.75, 5.75, 5.75, 6.13, 6.13, 6.28, 6.28, 6.13, 5.75, 5.75, 6.0, 6.1, 6.3, 6.3, 6.3, 5.81, 5.31, 5.31, 5.31, 5.57, 6.04, 6.47, 6.94, 6.94, 6.94, 7.4, 7.4, 7.4, 7.4, 7.51, 6.94, 6.28, 5.37, 4.75, 5.08, 4.75, 3.45, 1.8, 1.16, 0.55, 0.57, -0.0, -0.0, -0.0, -0.0, -0.0, -0.0, 0.61, 0.82, 0.76, -0.0, -0.0, -0.98, -0.0, 1.3, 1.7, -0.0, -0.88, -0.0, -0.0, -0.0, -0.54, -0.0, 2.41, 4.66, 6.65, 8.82, 11.28, 13.35, 19.3, 16.71, 2.17, -3.16, -1.79, -0.63, 0.6, 1.2, 1.24, 1.2, 1.84, 2.73, 2.98, 2.4, 1.55, 2.66, 6.01, 10.91, 11.12, 10.09, 9.6, 9.86, 9.86, 6.28, 6.28, 6.28, 6.28, 6.28, 6.13, 6.13, 5.75, 5.75, 6.13, 6.28, 6.28, 6.28, 6.28, 6.28, 5.89, 6.1, 6.1, 6.3, 6.3, 6.3, 5.88, 5.81, 5.31, 5.31, 5.4, 5.99, 6.47, 6.94, 7.37, 7.4, 7.4, 7.4, 7.4, 7.4, 7.51, 6.79, 6.28, 5.06, 5.08, 5.08, 5.06, 3.47, 1.7, 1.19, 0.57, -0.0, -0.0, -0.0, -0.0, -0.0, -0.0, -0.0, -0.0, 0.55, 0.81, 1.41, -0.0, -0.87, -0.0, 0.88, 1.7, -0.0, -0.0, -0.0, -0.0, -0.57, -0.8, 0.45, 1.2, 5.09, 6.26, 5.81, 5.81, 8.95, 14.83, 22.06, 13.59, 0.0, -3.07, -1.27, -0.57, -0.0, 0.57, 1.4, 2.0, 2.98, 2.88, 4.36, 3.72, 2.07, 4.43, 10.9, 12.59, 12.5, 11.85, 11.73, 11.73, 6.28, 6.28, 6.28, 6.28, 6.28, 6.28, 6.13, 6.13, 6.13, 6.13, 6.28, 6.28, 6.28, 6.28, 6.28, 6.28, 6.1, 6.1, 6.51, 6.72, 6.3, 6.3, 5.81, 5.31, 5.31, 5.31, 5.81, 6.47, 6.94, 7.26, 7.4, 7.4, 7.4, 6.94, 6.97, 6.97, 6.79, 6.28, 5.59, 5.37, 5.37, 5.35, 4.12, 2.35, 1.52, 1.19, 0.59, -0.0, -0.0, -0.0, 0.59, 0.54, 0.63, 0.59, -0.0, 0.65, 1.6, -0.0, -0.0, -0.0, 0.81, 0.76, -0.0, -0.0, -0.0, -0.0, -0.0, -0.45, -1.26, 0.0, 4.47, 7.11, 3.32, 2.11, 5.37, 12.14, 16.99, 20.51, 14.7, 1.79, -2.6, -1.0, 0.53, 2.22, 3.32, 3.55, 3.32, 3.72, 5.43, 5.09, 3.48, 4.46, 7.92, 11.94, 13.05, 13.33, 13.18, 13.18, 6.28, 6.28, 6.28, 6.28, 6.28, 6.28, 6.28, 6.28, 6.28, 6.28, 6.28, 6.28, 6.28, 6.28, 6.28, 6.28, 6.51, 6.51, 6.51, 6.79, 6.79, 6.3, 6.3, 5.81, 5.31, 5.31, 5.4, 5.88, 6.79, 7.26, 7.4, 7.4, 6.94, 6.94, 6.94, 6.94, 6.79, 6.28, 5.59, 5.93, 5.93, 5.59, 4.12, 2.32, 1.65, 1.72, 1.6, 0.59, 0.53, 1.16, 1.19, 1.76, 1.27, 1.2, 0.8, 0.95, 0.8, -0.0, -0.0, -0.0, -0.0, -0.0, -0.0, -0.0, -0.0, -0.81, -0.0, 0.85, 0.0, -0.85, 2.54, 7.11, 7.56, 4.74, 4.68, 8.53, 12.04, 14.28, 19.73, 15.01, 1.86, -1.34, 0.54, 2.6, 4.45, 5.59, 6.01, 6.7, 6.9, 6.32, 5.09, 5.43, 8.49, 11.34, 13.07, 14.11, 14.11, 14.11, 6.67, 6.67, 6.67, 6.67, 6.28, 6.28, 6.28, 6.28, 6.28, 6.28, 6.28, 6.28, 6.67, 6.67, 6.28, 6.28, 6.51, 6.51, 6.51, 6.79, 6.79, 6.79, 6.3, 5.6, 5.08, 5.31, 5.31, 5.81, 6.3, 6.94, 6.94, 6.94, 6.94, 6.51, 6.51, 6.51, 6.3, 5.89, 5.86, 5.59, 5.93, 5.59, 4.12, 2.32, 1.8, 1.52, 1.72, 1.67, 1.16, 1.19, 1.23, 1.76, 2.22, 1.88, 1.26, 0.63, -0.0, -0.0, -0.0, -0.0, -0.0, -0.0, -0.0, -0.0, -0.0, -1.49, -0.88, 2.32, 4.11, 2.24, 0.0, 4.02, 9.33, 9.81, 6.68, 6.2, 7.64, 9.49, 13.32, 19.65, 12.95, 2.0, 0.57, 2.82, 5.38, 6.92, 8.29, 8.88, 7.85, 6.32, 5.36, 5.72, 8.25, 11.09, 13.21, 14.13, 14.13, 14.13, 6.67, 6.67, 6.67, 6.67, 6.67, 6.28, 6.28, 6.28, 6.28, 6.28, 6.28, 6.28, 6.28, 6.8, 6.28, 6.28, 6.51, 6.51, 6.6, 6.79, 6.79, 6.79, 6.3, 5.81, 5.6, 5.31, 5.31, 5.4, 6.7, 6.47, 6.51, 6.51, 6.51, 6.51, 6.51, 6.47, 6.3, 5.75, 5.86, 5.86, 5.86, 5.35, 3.85, 3.0, 1.67, 1.16, 1.7, 1.7, 1.19, 1.23, 1.11, 1.76, 1.76, 2.2, 2.4, 1.16, -0.0, -0.0, -0.0, -0.0, -0.0, -0.0, -0.0, -0.0, -0.0, -0.54, -2.53, -0.0, 4.65, 5.81, 2.68, 2.24, 6.61, 13.01, 9.83, 3.9, 3.22, 5.34, 9.83, 15.5, 16.99, 8.94, 2.6, 3.43, 5.49, 7.61, 9.2, 9.92, 8.55, 6.25, 5.05, 5.6, 7.76, 10.84, 12.97, 13.88, 14.31, 14.31, 6.8, 6.8, 6.8, 6.8, 6.67, 6.28, 6.28, 6.28, 6.28, 6.28, 6.28, 6.28, 6.67, 6.8, 6.8, 6.28, 6.51, 6.51, 6.79, 6.79, 6.79, 6.79, 6.3, 6.3, 5.81, 5.31, 5.31, 5.57, 6.04, 6.98, 6.47, 6.79, 6.94, 6.94, 6.51, 6.47, 6.3, 5.75, 5.86, 6.03, 5.59, 5.06, 3.85, 2.77, 2.16, 1.7, 1.19, 1.23, 1.11, 1.27, 1.11, 1.23, 1.73, 1.7, 1.67, 1.8, 1.14, 0.57, 0.58, -0.0, -0.0, -0.0, -0.0, -0.0, -0.0, -0.0, -0.99, -0.95, 2.4, 5.4, 4.8, 4.02, 5.09, 11.18, 15.12, 6.22, 0.0, 2.12, 8.01, 12.89, 14.75, 12.05, 6.67, 3.51, 5.14, 6.84, 9.11, 9.57, 7.71, 3.32, 3.2, 4.73, 7.57, 10.26, 12.5, 14.11, 14.15, 14.15, 6.4, 6.4, 6.8, 6.8, 6.8, 6.67, 6.28, 6.28, 6.28, 6.28, 6.28, 6.28, 6.67, 6.8, 6.8, 6.6, 6.6, 6.6, 6.79, 6.79, 6.79, 6.79, 6.72, 6.3, 5.81, 5.31, 5.4, 5.57, 6.04, 6.51, 6.94, 7.4, 6.94, 6.94, 6.51, 6.47, 6.1, 5.75, 5.75, 5.86, 5.59, 4.75, 3.68, 3.0, 2.36, 1.73, 1.57, 1.76, 1.27, 1.27, 1.11, 1.23, 1.19, 1.73, 1.88, 1.16, 1.19, 0.61, 0.59, 0.59, -0.0, -0.0, -0.0, -0.0, -0.0, -0.0, -0.0, -0.0, 1.9, 4.8, 5.43, 6.14, 6.14, 9.54, 14.3, 11.52, 3.13, 2.24, 7.6, 12.52, 14.3, 13.39, 10.7, 6.71, 4.47, 5.81, 7.58, 7.52, 4.24, 2.4, 1.7, 3.13, 7.12, 9.81, 11.6, 13.84, 14.29, 14.29, 6.6, 6.6, 6.8, 6.8, 6.8, 6.8, 6.28, 6.28, 6.28, 6.28, 6.28, 6.28, 6.8, 6.8, 6.8, 7.01, 6.6, 6.6, 6.79, 6.79, 6.79, 6.79, 6.79, 6.3, 5.81, 5.4, 5.4, 5.99, 6.04, 6.51, 6.94, 6.97, 6.94, 7.06, 6.61, 6.47, 5.6, 5.75, 5.75, 5.86, 5.35, 4.47, 3.45, 2.8, 2.82, 2.2, 1.76, 1.58, 1.58, 1.11, 1.23, 1.23, 1.73, 1.73, 1.76, 1.23, 0.63, 0.55, 0.55, -0.0, -0.0, -0.0, -0.0, -0.0, -0.0, -0.0, 0.6, 1.0, 2.21, 3.84, 5.09, 7.2, 8.43, 9.81, 10.73, 10.93, 8.19, 5.77, 8.94, 12.96, 14.29, 13.86, 11.62, 7.6, 4.47, 4.02, 4.47, 3.07, 1.86, 1.26, 1.34, 2.6, 5.59, 7.76, 9.62, 10.52, 13.41, 13.41, 6.6, 6.6, 6.4, 6.8, 6.8, 6.8, 6.8, 6.4, 6.28, 6.28, 6.28, 6.28, 6.8, 7.01, 7.01, 7.01, 6.6, 6.79, 6.79, 6.79, 6.79, 6.79, 6.79, 6.3, 5.81, 5.81, 5.57, 5.99, 6.04, 6.51, 6.94, 7.06, 7.06, 6.61, 6.6, 6.04, 5.81, 5.6, 5.58, 5.29, 5.35, 4.75, 3.45, 2.82, 3.08, 2.84, 2.44, 1.76, 1.76, 1.08, 1.23, 1.23, 1.76, 1.76, 1.76, 1.23, 0.63, 0.55, 0.55, -0.0, -0.0, -0.0, -0.0, -0.0, -0.0, 1.2, 0.95, 0.95, 1.9, 2.84, 5.01, 7.03, 10.18, 10.62, 8.94, 6.66, 8.4, 10.75, 12.42, 14.3, 14.3, 12.07, 8.94, 3.58, 1.34, 0.89, 1.34, 1.26, 1.24, 0.99, 1.2, 2.12, 3.2, 5.34, 7.28, 8.67, 11.54, 11.54, 6.6, 6.6, 6.6, 7.01, 7.01, 7.01, 7.01, 6.8, 6.4, 6.4, 6.28, 6.4, 7.01, 7.01, 7.01, 7.01, 6.6, 6.79, 6.79, 6.79, 6.94, 6.94, 6.79, 6.3, 5.81, 5.81, 5.57, 5.99, 6.47, 6.51, 6.94, 7.06, 6.61, 6.68, 6.16, 5.99, 5.4, 5.08, 5.21, 5.29, 5.01, 4.45, 3.47, 3.11, 3.49, 3.49, 2.86, 2.44, 1.73, 1.73, 1.57, 1.23, 1.58, 1.76, 1.76, 1.76, 1.08, 0.55, 0.55, -0.0, -0.0, -0.0, -0.0, -0.0, 0.85, 1.4, 0.95, 1.49, 1.74, 2.41, 3.79, 5.77, 8.72, 11.62, 7.12, 3.83, 3.97, 11.15, 15.63, 16.03, 14.6, 11.99, 7.12, 1.34, -0.45, -0.0, 1.26, 1.9, 1.88, 2.5, 2.15, 2.24, 2.6, 4.24, 5.59, 6.85, 8.19, 9.62, 6.6, 6.6, 6.6, 6.6, 7.01, 7.01, 7.01, 7.01, 7.01, 6.6, 6.4, 7.01, 7.01, 7.01, 7.01, 7.01, 7.01, 6.79, 6.79, 6.79, 6.94, 6.94, 6.94, 6.3, 5.88, 5.81, 5.57, 5.99, 6.47, 6.51, 7.06, 7.06, 6.68, 6.68, 6.23, 5.7, 5.31, 5.08, 5.21, 4.94, 5.29, 4.74, 3.47, 3.9, 3.76, 3.49, 2.86, 2.4, 2.4, 2.4, 2.44, 1.58, 1.27, 1.8, 1.76, 1.76, 1.08, 0.55, 0.55, 0.55, -0.0, -0.0, -0.0, -0.0, 1.2, 1.4, 1.27, 1.49, 1.8, 1.66, 1.7, 3.45, 7.64, 12.79, 12.81, 4.4, 1.49, 8.3, 13.25, 13.41, 11.89, 11.28, 8.38, 1.79, -0.89, -0.0, 1.24, 2.5, 3.07, 3.07, 3.32, 3.53, 3.58, 6.21, 6.55, 7.45, 7.76, 8.19, 6.6, 6.6, 6.6, 6.6, 7.01, 7.01, 7.01, 7.01, 7.01, 7.01, 7.01, 7.01, 7.01, 7.01, 7.01, 7.01, 7.01, 6.79, 6.79, 6.94, 6.94, 6.94, 6.94, 6.47, 6.3, 5.99, 5.99, 5.99, 6.47, 6.51, 7.06, 7.06, 6.68, 6.68, 6.23, 5.7, 5.31, 4.65, 5.21, 5.21, 5.29, 5.29, 3.84, 3.47, 4.16, 3.84, 3.49, 3.08, 3.08, 2.84, 2.44, 1.76, 1.27, 1.27, 1.76, 1.76, 1.23, 0.55, 0.55, 0.55, -0.0, -0.0, -0.0, -0.0, 1.6, 1.13, 0.57, 1.24, 0.85, 1.55, 0.81, 2.4, 6.28, 10.55, 14.09, 8.55, 1.52, 2.39, 6.7, 7.57, 7.92, 9.4, 10.05, 5.78, 1.34, 0.63, 1.58, 2.8, 3.82, 4.41, 4.02, 4.92, 6.66, 8.82, 9.11, 9.06, 8.48, 7.76, 6.6, 6.6, 6.6, 6.6, 6.6, 7.01, 7.01, 7.01, 7.01, 7.01, 7.01, 7.01, 7.01, 7.01, 7.01, 7.01, 7.21, 6.79, 6.79, 6.94, 6.94, 6.94, 6.94, 6.47, 6.47, 5.99, 5.99, 5.99, 6.6, 6.61, 7.06, 6.61, 6.68, 6.68, 6.68, 6.16, 5.31, 4.84, 5.21, 5.21, 5.29, 5.29, 4.12, 3.47, 3.47, 4.16, 3.47, 3.22, 3.49, 3.49, 2.84, 2.22, 1.11, 1.11, 1.11, 1.23, 1.23, 0.55, 0.55, 0.55, -0.0, -0.0, -0.0, -0.0, 1.27, 1.27, 1.26, 1.27, 0.71, 0.88, 0.88, 1.83, 5.01, 8.15, 11.12, 13.97, 8.95, 1.4, 0.0, 1.34, 4.09, 9.34, 12.5, 11.75, 7.15, 2.24, 2.17, 3.07, 4.47, 5.36, 5.77, 7.01, 8.48, 10.52, 10.95, 10.01, 9.49, 9.49, 6.79, 6.79, 6.6, 6.6, 6.6, 7.01, 7.01, 7.01, 7.01, 7.01, 7.01, 7.01, 7.01, 7.01, 7.01, 7.21, 7.21, 6.79, 6.79, 6.94, 6.94, 6.94, 6.94, 6.47, 6.47, 5.99, 5.99, 6.16, 6.6, 6.61, 7.06, 6.61, 6.68, 6.71, 6.68, 6.04, 5.6, 5.21, 5.21, 5.75, 5.29, 4.43, 4.12, 4.12, 3.49, 3.83, 4.12, 3.49, 3.49, 3.49, 3.22, 2.2, 1.76, 1.11, 1.11, 1.23, 1.23, 0.55, 0.55, 0.55, -0.0, -0.0, -0.0, -0.0, 1.41, 1.41, 1.41, 1.27, -0.0, -0.0, 0.79, 1.8, 4.65, 6.82, 9.2, 12.17, 17.27, 13.23, 1.7, 0.45, 3.22, 9.6, 15.54, 17.17, 12.79, 4.92, 2.24, 3.13, 5.32, 7.45, 8.19, 9.08, 9.74, 10.68, 9.84, 9.2, 9.2, 9.2, 6.79, 6.79, 6.79, 6.79, 6.6, 7.01, 7.01, 7.01, 7.01, 7.01, 7.01, 7.01, 7.01, 7.01, 7.21, 7.21, 7.21, 6.79, 6.94, 6.94, 6.94, 6.94, 6.94, 6.47, 6.47, 6.04, 5.99, 6.16, 6.6, 6.61, 7.06, 6.68, 6.68, 6.71, 6.68, 6.04, 5.6, 5.37, 5.75, 5.75, 5.29, 4.43, 4.43, 4.12, 3.83, 3.83, 3.49, 3.49, 3.22, 3.49, 3.22, 2.84, 1.94, 1.23, 1.11, 1.11, 1.23, 0.55, 0.55, 0.61, -0.0, -0.0, -0.0, -0.0, 1.19, 1.41, 1.41, 1.41, 0.85, 0.7, 0.87, 1.98, 3.58, 6.4, 8.4, 10.43, 14.3, 17.59, 13.35, 5.75, 4.4, 9.89, 15.96, 18.56, 15.26, 7.12, 2.6, 3.07, 5.6, 8.14, 9.18, 9.74, 9.84, 9.65, 9.27, 8.3, 8.3, 8.3, 6.79, 6.79, 6.79, 6.79, 6.79, 7.21, 7.21, 7.21, 7.21, 7.01, 7.01, 7.01, 7.21, 7.21, 7.21, 7.21, 7.21, 6.94, 6.94, 6.94, 6.94, 6.94, 6.94, 6.47, 6.47, 6.04, 6.16, 6.16, 6.6, 6.61, 7.06, 6.68, 6.68, 6.68, 6.16, 5.99, 5.6, 5.6, 5.75, 5.75, 5.29, 4.94, 4.43, 4.12, 4.12, 3.83, 3.83, 3.49, 3.49, 3.49, 3.49, 3.12, 2.44, 1.23, 1.11, 1.11, 1.23, 0.55, 0.55, -0.0, -0.0, -0.0, -0.0, -0.0, -0.0, 1.41, 1.41, 0.71, 0.85, -0.0, 1.27, 1.6, 3.22, 5.43, 7.35, 8.82, 11.09, 13.75, 14.7, 13.1, 10.48, 11.3, 15.22, 17.97, 15.22, 8.24, 3.07, 3.14, 6.32, 7.85, 9.77, 7.32, 7.69, 8.06, 7.06, 6.44, 6.44, 6.44, 6.79, 6.79, 6.79, 6.79, 6.79, 6.79, 7.21, 7.21, 7.21, 7.21, 7.21, 7.21, 7.21, 7.21, 7.21, 7.21, 7.37, 6.94, 6.94, 6.94, 7.06, 7.06, 7.06, 6.51, 6.47, 6.16, 6.16, 6.16, 6.6, 6.61, 7.06, 6.68, 6.68, 6.68, 6.16, 5.99, 5.81, 5.6, 6.0, 5.75, 5.29, 4.94, 4.71, 4.71, 4.11, 4.11, 4.11, 4.11, 3.49, 3.49, 3.49, 2.86, 2.44, 1.76, 1.11, 1.11, 1.11, 0.55, -0.0, -0.0, -0.0, -0.0, -0.0, -0.57, -0.0, -0.0, 1.27, 0.57, 0.71, -0.0, 0.87, 1.8, 2.68, 4.84, 6.4, 7.76, 9.49, 11.75, 12.86, 12.16, 12.52, 14.46, 16.12, 16.44, 13.4, 7.45, 3.51, 4.75, 6.06, 8.0, 6.7, 4.46, 4.46, 5.46, 4.74, 4.46, 4.46, 4.46, 6.79, 6.79, 6.79, 6.79, 6.79, 6.79, 6.79, 6.79, 6.79, 7.21, 7.21, 7.21, 7.21, 7.26, 7.26, 7.37, 6.94, 6.94, 6.94, 6.94, 7.06, 7.06, 7.06, 6.61, 6.16, 6.16, 6.16, 6.16, 6.61, 6.61, 7.13, 6.68, 6.68, 6.23, 6.16, 5.99, 5.81, 5.6, 6.0, 5.75, 5.29, 4.94, 4.71, 4.71, 4.37, 4.11, 4.11, 4.11, 4.11, 3.49, 3.49, 2.86, 2.44, 2.22, 1.11, 1.11, 0.57, 0.63, -0.0, -0.0, -0.0, -0.0, -1.14, -1.12, -0.59, -0.0, -0.0, 1.27, -0.0, 0.57, -0.0, 0.87, 2.68, 4.19, 5.46, 6.44, 8.05, 10.23, 10.9, 10.24, 11.87, 15.72, 17.83, 18.0, 12.5, 2.68, 1.2, 3.43, 4.36, 2.15, 2.4, 2.23, 2.21, 2.15, 2.51, 2.79, 2.79, 2.79, 6.79, 6.79, 6.79, 6.79, 6.79, 6.79, 6.79, 6.79, 6.79, 6.79, 7.21, 7.21, 7.26, 7.26, 7.4, 7.4, 6.94, 6.94, 6.94, 7.06, 7.06, 7.06, 6.61, 6.61, 6.16, 6.16, 6.16, 6.16, 6.68, 6.68, 7.13, 6.68, 6.68, 6.23, 6.16, 5.99, 5.81, 6.0, 6.0, 5.75, 5.58, 4.94, 4.94, 4.71, 4.37, 4.11, 4.11, 4.11, 4.11, 3.49, 3.49, 2.86, 2.86, 2.22, 1.76, 1.11, 0.57, 0.63, -0.0, -0.0, -0.0, -0.59, -1.8, -2.29, -1.14, -0.0, -0.0, 1.08, 1.27, -0.0, -0.0, -0.0, 0.71, 3.35, 4.43, 5.43, 6.79, 8.03, 9.27, 9.56, 11.25, 14.51, 16.73, 20.43, 13.61, 0.0, -2.07, 0.0, 1.86, 1.86, 1.26, 1.26, 1.24, 1.4, 1.33, 1.33, 1.33, 1.33, 6.94, 6.94, 6.94, 6.94, 6.94, 6.94, 6.94, 6.94, 6.79, 6.79, 7.21, 7.4, 7.4, 7.4, 7.4, 6.97, 6.94, 6.94, 7.06, 7.06, 7.06, 7.06, 6.61, 6.61, 6.16, 6.16, 6.16, 6.23, 6.68, 6.68, 7.13, 6.68, 6.68, 6.23, 6.16, 6.04, 5.88, 6.1, 6.0, 5.75, 5.75, 5.21, 4.94, 4.94, 4.71, 4.37, 4.11, 4.11, 4.11, 3.49, 3.49, 2.86, 2.86, 2.22, 1.76, 1.76, 0.57, 0.63, -0.0, -0.0, -0.0, -0.59, -1.8, -3.0, -2.36, -0.81, -0.0, 0.88, 0.87, -0.0, 0.65, -0.0, -0.0, 0.65, 2.4, 3.9, 5.69, 6.32, 7.18, 9.23, 10.9, 12.16, 14.11, 20.71, 17.44, -0.0, -2.17, 0.0, 2.6, 3.13, 2.0, 0.57, 0.0, 0.0, 0.0, 0.0, 0.0, 0.0, 6.94, 6.97, 6.94, 6.94, 6.97, 6.97, 6.94, 6.94, 6.94, 6.94, 7.37, 7.4, 7.4, 7.4, 6.97, 6.94, 6.94, 7.06, 7.06, 7.06, 7.06, 6.61, 6.61, 6.61, 6.16, 6.16, 6.23, 6.23, 6.68, 6.68, 7.13, 6.68, 6.68, 6.16, 6.16, 6.04, 6.3, 6.3, 6.0, 5.75, 5.75, 5.21, 5.21, 4.94, 4.71, 4.37, 4.11, 4.11, 4.11, 3.79, 3.49, 3.49, 2.86, 2.48, 2.22, 1.76, 1.23, 0.63, -0.0, -0.0, -0.0, -0.59, -2.36, -3.04, -2.82, -1.7, -0.0, -0.0, -0.0, -0.0, 0.79, 0.65, -0.0, -0.0, 0.76, 2.47, 4.03, 5.59, 6.53, 8.6, 10.24, 10.9, 11.9, 18.55, 21.0, -5.81, -2.68, 0.45, 2.68, 4.43, 3.13, 0.63, -0.6, -0.6, -0.95, -0.45, -0.45, -0.45, 6.97, 7.4, 6.97, 6.97, 6.97, 6.97, 6.97, 6.94, 6.94, 6.94, 6.97, 7.4, 7.4, 6.97, 6.97, 7.06, 7.06, 7.06, 7.06, 7.06, 6.61, 6.61, 6.61, 6.61, 6.16, 6.16, 6.23, 6.23, 6.68, 6.68, 6.68, 6.68, 6.68, 6.16, 6.16, 6.47, 6.47, 6.3, 6.0, 5.75, 5.75, 5.75, 5.21, 5.21, 4.71, 4.71, 4.37, 4.11, 4.11, 4.11, 3.79, 3.49, 2.86, 2.48, 2.48, 1.76, 1.23, 0.63, -0.0, -0.0, -0.0, -0.54, -1.7, -3.49, -3.49, -2.44, -1.83, -0.81, -0.0, -0.0, -0.0, 1.55, 0.79, -0.0, -0.0, 0.79, 3.11, 4.16, 5.59, 7.64, 10.29, 10.9, 11.83, 17.96, 3.43, -3.58, -2.24, -0.63, 0.0, 1.7, 2.5, 1.86, 0.0, -1.34, -0.89, -0.45, -0.45, -0.45, 7.4, 7.4, 7.4, 7.4, 7.4, 6.97, 6.97, 6.97, 6.94, 6.94, 6.97, 6.97, 6.97, 7.07, 7.07, 7.06, 7.06, 7.06, 7.06, 6.61, 6.61, 6.61, 6.61, 6.61, 6.16, 6.23, 6.23, 6.23, 6.68, 7.15, 6.71, 6.68, 6.23, 6.16, 6.6, 6.47, 6.47, 6.3, 6.1, 6.0, 5.75, 5.75, 5.21, 5.21, 4.94, 4.71, 4.71, 4.37, 4.11, 4.11, 4.11, 3.49, 3.49, 2.86, 2.48, 2.22, 1.76, 0.63, -0.0, -0.0, -0.0, -0.61, -1.73, -2.84, -3.49, -2.86, -2.53, -1.66, -1.8, -1.49, -0.76, -0.0, 1.41, 0.79, -0.0, 0.79, 2.29, 3.79, 5.3, 7.06, 8.68, 10.29, 12.39, 16.82, 1.0, -3.53, -2.6, -2.17, -1.86, -0.54, 1.84, 2.84, 1.86, 0.45, 0.45, 0.0, 0.0, 0.0, 7.51, 7.51, 7.51, 7.51, 7.51, 7.51, 7.07, 7.07, 7.06, 7.06, 7.06, 7.07, 7.07, 7.07, 7.06, 7.06, 7.06, 7.06, 6.61, 6.61, 6.68, 6.68, 6.61, 6.61, 6.23, 6.23, 5.78, 6.23, 6.68, 7.15, 6.71, 6.23, 6.23, 6.16, 6.6, 6.6, 6.47, 6.3, 6.1, 6.0, 6.0, 5.75, 5.37, 5.21, 5.21, 4.94, 4.71, 4.71, 4.37, 4.11, 4.11, 3.79, 3.48, 2.86, 2.48, 2.48, 1.76, 1.23, -0.0, -0.0, -0.63, -0.55, -1.08, -2.44, -3.48, -3.16, -2.51, -1.61, -1.6, -1.74, -1.49, -0.0, -0.0, 0.61, -0.0, -0.0, 0.72, 3.09, 6.24, 7.02, 8.03, 9.92, 20.05, 16.55, -0.0, -3.97, -1.84, -0.61, -0.59, -0.0, 2.88, 4.75, 3.07, 2.12, 0.45, 0.0, 0.0, 0.0, 7.51, 7.51, 7.51, 7.51, 7.51, 7.07, 7.07, 7.07, 7.06, 7.06, 7.06, 7.06, 7.06, 7.06, 7.06, 7.06, 7.06, 6.61, 6.68, 6.68, 6.68, 6.68, 6.68, 6.68, 6.23, 6.23, 5.78, 6.23, 6.71, 7.15, 6.68, 6.23, 6.23, 6.23, 6.6, 6.6, 6.47, 6.3, 6.1, 6.0, 6.0, 5.6, 5.6, 5.21, 5.21, 5.21, 4.94, 4.71, 4.71, 4.37, 4.11, 4.11, 3.79, 3.15, 2.86, 2.48, 2.48, 1.11, 0.57, -0.0, -0.57, -0.57, -0.63, -1.76, -2.86, -2.86, -2.51, -1.33, -1.6, -1.74, -0.99, -0.85, -0.0, -0.0, -0.0, -0.0, -0.0, 2.35, 5.76, 7.27, 7.64, 9.66, 18.63, 21.68, 2.91, -3.97, -3.11, -0.0, 1.36, 2.04, 4.02, 5.69, 5.46, 3.32, 1.79, 0.0, 0.0, 0.0, 7.51, 7.51, 7.51, 7.51, 7.51, 7.07, 7.07, 7.07, 7.06, 7.06, 7.06, 7.06, 7.06, 7.06, 7.06, 7.06, 6.68, 6.68, 6.68, 6.68, 6.68, 6.68, 6.68, 6.68, 6.23, 6.23, 5.78, 6.26, 6.71, 6.71, 6.68, 6.23, 6.23, 6.23, 6.6, 6.61, 6.51, 6.3, 6.3, 6.3, 6.0, 5.6, 5.6, 5.37, 5.21, 5.21, 4.94, 4.94, 4.71, 4.71, 4.37, 4.11, 3.79, 3.48, 2.86, 2.86, 2.23, 1.8, 0.57, -0.0, -0.0, -0.57, -0.57, -1.11, -1.58, -2.48, -2.51, -1.6, -1.16, -0.85, -0.85, -0.87, -0.0, -0.0, -0.0, -0.0, -0.54, 0.7, 4.16, 6.32, 7.35, 11.28, 15.03, 23.64, 17.9, 0.0, -5.09, -0.0, 2.75, 3.55, 3.38, 5.69, 7.95, 8.0, 3.97, 1.26, 1.26, 1.26, 7.58, 7.58, 7.58, 7.58, 7.58, 7.13, 7.13, 7.13, 7.13, 7.13, 7.13, 7.13, 7.13, 7.13, 7.13, 6.68, 6.68, 6.68, 6.68, 6.68, 6.68, 6.68, 6.68, 6.68, 6.23, 6.23, 5.78, 6.26, 6.26, 6.71, 6.68, 6.68, 6.23, 6.23, 6.61, 6.51, 6.94, 6.36, 6.3, 6.3, 6.3, 6.0, 5.6, 5.37, 5.37, 5.21, 4.94, 4.94, 4.94, 4.71, 4.71, 4.11, 4.07, 3.48, 3.48, 2.86, 2.23, 1.8, 1.13, -0.0, -0.0, -0.59, -0.59, -0.57, -1.11, -2.23, -2.23, -1.8, -1.33, -0.99, -0.99, -0.0, -0.0, -0.0, -0.0, -0.0, -0.0, -0.0, 2.3, 4.74, 7.69, 10.23, 13.23, 19.77, 26.68, 10.02, -2.5, -1.41, 3.4, 5.35, 4.75, 5.38, 9.05, 10.68, 8.63, 4.02, 4.02, 4.02, 7.58, 7.58, 7.58, 7.58, 7.13, 7.13, 7.13, 7.13, 7.13, 7.13, 7.13, 7.13, 7.13, 7.13, 6.68, 6.68, 6.68, 6.68, 6.68, 6.68, 6.68, 6.68, 6.68, 6.23, 6.23, 6.23, 5.79, 6.23, 6.26, 6.71, 6.71, 6.68, 6.68, 6.6, 6.61, 6.94, 6.94, 6.94, 6.51, 6.3, 6.3, 6.1, 6.0, 6.0, 5.75, 5.58, 5.21, 4.94, 4.94, 4.71, 4.71, 4.11, 4.07, 3.79, 3.48, 2.86, 2.84, 2.51, 1.6, 0.59, -0.0, -0.0, -0.59, -0.59, -1.13, -1.8, -2.23, -2.23, -1.84, -1.6, -0.99, -0.0, -0.0, -0.54, -0.0, -0.0, -0.0, -0.0, 0.57, 4.46, 6.44, 9.49, 12.8, 18.35, 25.76, 18.82, 1.9, -0.7, 2.6, 6.98, 6.96, 6.8, 8.76, 11.18, 10.02, 8.05, 8.05, 8.05, 7.58, 7.58, 7.58, 7.13, 7.13, 7.13, 7.13, 7.13, 7.13, 7.13, 7.13, 7.13, 7.13, 6.68, 6.68, 6.68, 6.68, 6.68, 6.68, 6.68, 6.68, 6.68, 6.68, 6.68, 6.23, 6.23, 5.79, 6.23, 6.26, 6.71, 6.71, 6.71, 6.68, 6.6, 6.61, 6.94, 6.97, 6.94, 6.94, 6.3, 6.3, 6.3, 6.1, 6.0, 5.75, 5.75, 5.58, 5.29, 4.94, 4.94, 4.71, 4.65, 4.07, 4.07, 3.48, 3.43, 3.16, 2.51, 1.84, 1.16, 0.61, -0.0, -0.0, -0.61, -0.51, -1.13, -1.8, -2.51, -2.23, -1.61, -0.65, -0.0, -0.0, -0.57, -0.57, -0.0, -0.0, -0.0, -0.0, 2.53, 5.82, 8.82, 12.58, 17.0, 23.9, 20.7, 7.67, 0.61, 3.43, 7.59, 8.49, 8.67, 9.15, 10.62, 10.25, 8.94, 8.94, 8.94, 7.58, 7.58, 7.6, 7.15, 7.15, 7.15, 7.13, 7.13, 6.68, 6.68, 6.68, 6.68, 6.68, 6.68, 6.68, 6.68, 6.68, 6.68, 6.68, 6.68, 6.23, 6.23, 6.23, 6.23, 6.23, 5.78, 5.78, 6.23, 6.26, 6.71, 6.71, 6.71, 6.23, 6.6, 6.61, 7.06, 7.07, 6.97, 6.94, 6.94, 6.3, 6.3, 6.1, 6.0, 5.75, 5.75, 5.75, 5.58, 4.94, 4.94, 5.21, 4.65, 4.65, 4.07, 4.0, 3.78, 3.43, 2.84, 2.23, 1.61, 1.16, -0.0, -0.0, -0.0, -0.0, -0.61, -1.16, -2.23, -2.53, -1.88, -0.65, -0.0, -0.0, -0.0, -0.57, -0.57, -0.0, -0.0, -0.0, 0.95, 5.2, 8.82, 12.09, 16.05, 21.15, 21.7, 12.47, 4.74, 4.74, 8.18, 9.7, 9.86, 10.37, 10.52, 10.26, 8.94, 8.94, 8.94, 7.6, 7.6, 7.6, 7.15, 7.15, 7.15, 7.15, 6.71, 6.71, 6.71, 6.71, 6.71, 6.71, 6.71, 6.71, 6.71, 6.71, 6.71, 6.71, 6.68, 6.23, 6.23, 6.23, 6.23, 6.23, 5.78, 5.78, 6.26, 6.26, 6.71, 6.71, 6.68, 6.23, 6.68, 7.06, 7.07, 7.07, 6.97, 6.94, 6.94, 6.36, 6.3, 6.1, 6.1, 5.75, 5.75, 5.75, 5.75, 5.58, 5.58, 5.21, 5.21, 4.65, 4.29, 4.37, 4.0, 3.43, 3.35, 2.79, 2.53, 1.88, 1.2, 0.54, -0.0, -0.0, -0.0, -0.65, -1.4, -1.88, -1.9, -1.0, -0.54, -0.65, -1.6, -1.24, -0.57, -0.0, -0.0, 0.6, 0.95, 4.38, 8.33, 10.93, 13.96, 17.96, 19.75, 15.37, 9.27, 7.35, 8.65, 10.53, 10.87, 11.06, 11.58, 10.63, 7.6, 7.6, 7.6, 7.6, 7.6, 7.6, 7.15, 7.15, 7.15, 7.15, 6.71, 6.71, 6.71, 6.71, 6.71, 6.71, 6.71, 6.71, 6.71, 6.71, 6.71, 6.71, 6.68, 6.23, 6.23, 6.23, 6.23, 6.23, 5.78, 5.78, 6.26, 6.26, 6.71, 6.71, 6.68, 6.23, 6.68, 7.06, 7.07, 7.07, 6.97, 6.94, 6.94, 6.36, 6.3, 6.1, 6.1, 5.75, 5.75, 5.75, 5.75, 5.58, 5.58, 5.21, 5.21, 4.65, 4.29, 4.37, 4.0, 3.43, 3.35, 2.79, 2.53, 1.88, 1.2, 0.54, -0.0, -0.0, -0.0, -0.65, -1.4, -1.88, -1.9, -1.0, -0.54, -0.65, -1.6, -1.24, -0.57, -0.0, -0.0, 0.6, 0.95, 4.38, 6.98, 9.54, 12.09, 14.68, 16.63, 15.74, 11.82, 9.23, 9.62, 10.91, 11.53, 12.08, 12.7, 10.95, 6.21, 6.21, 6.21]}, {"header": {"dx": 0.06612293990616946, "dy": 0.0552356325346848, "nx": 98, "ny": 59, "la1": 35.046912555036876, "la2": 31.78801023549047, "lo1": -121.43107172385933, "lo2": -114.95102361305473, "refTime": "2026041107", "parameterCategory": 1, "parameterNumber": 3}, "data": [4.94, 5.21, 5.21, 5.21, 5.75, 5.6, 5.81, 5.7, 5.78, 5.81, 5.36, 4.47, 3.95, 3.47, 3.13, 2.24, 2.24, 2.12, 4.24, 4.4, 4.8, 2.98, 3.22, 3.45, 3.2, 3.32, 3.04, 2.68, 2.6, 2.5, 1.6, 0.73, -0.0, -0.0, -0.71, -1.9, -2.24, -2.54, -2.6, -1.74, -0.76, 0.0, 1.74, 1.98, 0.96, 1.52, 1.45, 1.45, 2.2, 3.11, 4.01, 4.43, 4.43, 4.74, 4.74, 4.01, 4.01, 3.22, 2.4, 2.4, 2.29, 2.35, 2.44, 2.28, 2.97, 2.97, 3.06, 2.31, 2.18, 3.06, 3.11, 3.21, 2.4, 0.79, 0.61, 0.7, 0.7, 0.0, -1.34, -3.32, -3.83, -4.8, -5.43, -5.34, -5.64, -5.81, -5.31, -4.4, -4.12, -4.83, -5.28, -6.2, -6.33, -6.1, -6.1, -5.48, -4.58, -2.35, 4.71, 4.94, 5.21, 5.21, 5.58, 5.75, 5.6, 5.57, 5.7, 5.34, 5.34, 5.36, 4.02, 3.51, 3.82, 4.02, 2.24, 2.24, 3.82, 4.15, 4.8, 5.2, 3.6, 4.98, 4.15, 3.74, 2.6, 2.24, 2.68, 2.8, 1.9, 0.61, -0.0, -0.7, -0.61, -1.24, -2.0, -2.68, -2.23, -0.71, 0.0, 0.76, 1.08, 0.81, 0.72, 0.74, 1.45, 1.6, 2.2, 3.07, 3.07, 3.79, 3.72, 3.64, 2.98, 2.98, 2.2, 2.2, 2.2, 2.4, 1.6, 1.55, 2.18, 2.99, 3.27, 4.0, 3.06, 2.31, 2.26, 2.31, 2.97, 3.78, 3.32, 2.26, 1.47, 1.47, 0.76, 0.0, -1.34, -3.32, -3.83, -4.8, -5.43, -5.34, -5.64, -5.81, -5.31, -4.4, -4.12, -4.83, -5.28, -6.2, -6.33, -6.1, -6.1, -5.48, -4.58, -2.35, 4.71, 4.94, 5.21, 5.21, 5.21, 5.21, 5.6, 5.4, 5.7, 5.34, 5.34, 4.89, 4.47, 3.47, 3.47, 3.04, 2.68, 3.13, 3.9, 4.4, 4.15, 4.09, 5.2, 5.81, 5.37, 4.4, 2.6, 2.24, 2.6, 3.51, 3.04, 2.4, 1.24, 0.71, 0.71, -0.0, -0.0, -0.89, -1.26, -1.24, -0.53, 0.0, 0.0, 0.0, 0.0, 0.78, 0.82, 1.41, 1.6, 1.4, 2.15, 2.3, 2.3, 2.2, 1.49, 1.33, 1.49, 1.49, 1.41, 1.55, 1.6, 1.6, 2.29, 3.11, 3.79, 4.6, 5.52, 4.92, 3.15, 2.26, 2.31, 3.06, 3.21, 2.99, 1.6, 0.78, 0.69, 0.0, -2.0, -3.14, -3.14, -3.83, -5.05, -5.82, -5.86, -6.22, -5.77, -4.66, -5.09, -6.24, -6.97, -7.63, -7.63, -7.01, -6.21, -3.85, -1.58, 0.0, 4.43, 4.71, 4.94, 5.21, 5.21, 5.21, 5.21, 5.31, 5.51, 5.24, 5.33, 5.33, 4.47, 3.58, 3.47, 3.04, 3.13, 3.13, 3.47, 3.6, 2.8, 2.8, 3.39, 3.6, 3.22, 3.93, 2.4, 2.24, 2.6, 3.04, 3.95, 4.24, 5.16, 5.36, 4.02, 3.13, 2.54, 0.95, -0.8, -1.24, -1.4, -0.79, 0.0, 0.0, 0.76, 0.82, 0.81, 0.76, 0.71, 0.71, 1.2, 1.6, 0.7, 0.7, 0.65, 0.65, 0.76, 0.76, 1.49, 1.55, 1.55, 2.07, 3.48, 3.48, 5.37, 7.27, 8.46, 8.38, 7.67, 4.66, 2.4, 1.63, 1.55, 2.06, 0.67, 0.0, -0.78, -0.61, -2.4, -3.48, -3.16, -2.84, -3.49, -5.09, -5.09, -5.16, -4.47, -5.64, -7.03, -8.27, -8.46, -7.73, -7.73, -6.2, -2.26, 0.0, 0.7, 1.41, 4.43, 4.71, 4.94, 4.94, 5.21, 5.21, 5.21, 5.08, 5.31, 5.24, 5.33, 4.89, 4.47, 3.58, 3.47, 3.04, 3.13, 3.13, 3.13, 3.95, 4.77, 3.82, 3.39, 1.6, 2.12, 2.54, 2.97, 2.68, 2.68, 2.6, 2.23, 3.22, 4.46, 5.16, 5.81, 4.4, 4.4, 2.68, 0.0, -0.65, -1.2, 0.0, 0.61, 1.41, 1.35, 0.7, 0.73, 0.76, 0.85, 1.49, 0.65, 0.76, 0.0, 0.71, 0.85, 1.4, 0.76, 1.6, 1.41, 1.41, 1.6, 1.9, 2.86, 4.84, 7.67, 9.9, 10.24, 10.75, 11.29, 9.49, 6.2, 3.69, 2.72, 3.2, 2.26, 0.0, -1.49, -1.88, -2.17, -3.43, -3.43, -2.84, -2.84, -3.72, -5.43, -5.34, -5.36, -7.21, -9.03, -9.3, -7.9, -7.18, -5.86, -0.7, 1.88, 2.98, 2.12, 1.45, 4.43, 4.71, 4.71, 4.94, 5.21, 5.21, 5.21, 5.08, 5.31, 5.09, 5.24, 4.89, 3.95, 3.13, 2.54, 2.12, 2.68, 3.13, 3.13, 3.47, 4.38, 4.85, 5.36, 5.7, 5.26, 5.7, 6.58, 6.61, 6.14, 4.02, 2.68, 1.6, 1.2, 1.24, 3.13, 3.2, 1.74, 2.2, 1.35, 0.0, 0.0, 1.24, 2.79, 3.11, 2.8, 2.29, 1.55, 1.33, 1.6, 1.6, 1.4, 0.65, 0.71, 0.71, 1.2, 1.49, 1.49, 1.49, 1.55, 1.55, 1.49, 2.54, 4.66, 7.21, 9.33, 10.23, 10.91, 11.2, 11.7, 12.56, 10.43, 7.24, 6.88, 6.71, 6.21, 4.58, 0.0, -2.68, -2.4, -2.51, -3.72, -3.48, -3.16, -3.72, -5.43, -6.79, -7.56, -8.95, -9.27, -8.67, -7.02, -6.32, -0.61, 2.5, 3.72, 3.11, 1.4, 0.78, 4.43, 4.43, 4.71, 4.71, 4.71, 5.21, 5.21, 5.21, 5.08, 5.09, 5.24, 4.77, 3.95, 2.68, 2.8, 2.0, 2.68, 2.68, 2.68, 2.68, 2.54, 2.68, 3.47, 4.92, 5.7, 6.14, 6.14, 6.61, 5.81, 4.22, 3.2, 2.54, 2.6, 1.6, 3.13, 2.54, 1.8, 1.08, 1.99, 0.71, 0.63, 1.2, 1.9, 2.99, 3.2, 3.0, 3.11, 2.2, 1.6, 2.6, 2.99, 1.6, 1.6, 1.2, 0.76, 0.7, 0.79, 0.7, 0.0, 0.65, 1.86, 3.95, 5.77, 7.92, 8.63, 9.6, 9.27, 9.56, 10.12, 11.08, 10.1, 7.93, 6.44, 5.3, 5.48, 5.51, 3.06, -1.34, -2.53, -2.86, -3.79, -5.09, -5.09, -5.09, -6.54, -8.02, -9.26, -9.08, -8.24, -7.42, -6.25, -1.88, 2.4, 4.24, 3.16, 1.52, 0.79, 0.67, 4.43, 4.43, 4.71, 4.71, 4.71, 4.71, 5.01, 4.84, 5.08, 4.9, 4.66, 4.77, 4.15, 3.47, 3.58, 2.0, 1.79, 1.79, 1.79, 1.6, 0.95, 0.0, -0.0, 0.6, 2.68, 3.82, 4.02, 3.82, 3.79, 4.11, 4.24, 4.02, 4.24, 4.47, 3.13, 0.4, 0.0, 0.0, 0.96, 0.76, 0.6, 0.45, 0.0, 0.0, 1.08, 2.49, 3.2, 3.33, 2.4, 2.4, 2.3, 1.4, 1.49, 1.49, 0.7, 0.7, 0.0, 0.0, 0.0, 0.6, 2.54, 5.36, 6.26, 7.45, 7.21, 7.42, 7.64, 7.08, 6.33, 6.9, 7.08, 6.28, 3.16, 1.47, 0.72, 0.68, 2.28, 0.0, -2.15, -2.5, -3.07, -5.31, -6.54, -6.85, -8.02, -8.94, -8.71, -7.89, -6.4, -4.0, -2.4, 1.49, 3.97, 3.45, 2.0, 1.45, 0.69, 0.7, 4.12, 4.43, 4.43, 4.71, 4.71, 4.71, 4.71, 4.65, 4.93, 4.8, 4.6, 4.34, 4.77, 4.57, 3.9, 3.13, 2.68, 2.24, 2.24, 2.0, 1.58, 1.34, 0.0, 0.63, 0.45, 1.79, 0.89, 0.45, 2.84, 4.8, 4.92, 4.02, 3.2, 2.68, 0.6, 0.0, -1.26, -1.24, 0.0, 0.0, 0.8, 1.34, 0.0, 0.0, 0.0, 0.88, 2.32, 4.02, 4.43, 3.35, 3.49, 0.65, 0.0, 0.0, 0.0, 0.0, 0.0, 0.0, 0.0, 0.89, 4.02, 6.71, 6.26, 5.75, 5.09, 4.81, 4.71, 4.8, 3.76, 4.0, 3.87, 3.47, 1.54, 0.0, -0.73, -1.52, 0.0, 0.0, -1.79, -1.61, -1.9, -4.4, -5.02, -5.2, -5.32, -5.36, -4.88, -3.51, -2.6, -1.49, 0.6, 2.91, 3.39, 2.53, 2.2, 1.55, 0.74, 0.63, 4.12, 4.12, 4.43, 4.43, 4.71, 4.71, 4.71, 4.65, 4.65, 4.55, 4.4, 4.11, 3.6, 3.6, 4.0, 3.47, 2.68, 2.68, 2.68, 2.4, 2.4, 2.4, 2.4, 2.24, 1.79, 1.26, 0.0, 0.0, 3.13, 4.24, 3.82, 3.13, 2.4, 0.0, 0.0, 0.0, 0.0, -0.99, -0.85, 0.0, 0.57, 1.6, 0.0, 0.0, 0.0, 1.8, 2.53, 3.47, 4.16, 3.9, 4.01, 1.6, 0.0, -0.65, -1.6, -1.49, -1.33, -0.76, 0.0, 2.68, 6.26, 7.15, 7.52, 5.09, 3.22, 0.65, 0.78, 0.67, 0.7, 0.75, 0.79, 1.45, 1.41, 0.0, -0.67, -2.12, -2.99, -2.35, -1.9, -2.17, -1.2, -0.89, -2.24, -1.2, -0.63, 0.0, -0.63, -0.63, 0.0, 0.0, 1.86, 2.91, 2.8, 2.5, 2.0, 1.49, 0.71, 0.73, 4.12, 4.12, 4.12, 4.43, 4.71, 4.71, 4.71, 4.37, 4.65, 4.29, 4.0, 3.88, 3.6, 3.07, 3.6, 3.47, 2.68, 1.79, 1.2, 1.26, 1.0, 1.2, 0.85, 1.2, 0.0, 0.0, 0.0, 0.0, 0.0, 1.9, 1.4, 2.4, 2.54, 1.79, 0.89, 1.9, 1.6, 0.0, 0.0, 0.79, 1.74, 2.0, 0.8, 0.0, 1.4, 1.6, 1.66, 1.7, 2.4, 4.01, 5.77, 5.77, 4.46, 2.84, 0.0, -1.86, -3.04, -2.68, 0.89, 5.81, 7.6, 6.66, 5.59, 5.82, 4.01, 0.73, -0.78, -1.58, -2.39, -2.34, -2.37, -1.41, 0.0, -0.73, -1.36, -2.06, -1.98, -2.07, -2.4, -2.24, -0.63, 0.0, 1.2, 1.16, 2.79, 2.51, 1.88, 0.71, 0.6, 0.6, 1.26, 1.26, 1.86, 1.61, 0.73, 0.73, 0.71, 1.41, 4.12, 4.12, 4.12, 4.12, 4.12, 4.71, 4.71, 4.37, 4.37, 4.65, 4.37, 4.0, 3.35, 3.14, 2.53, 2.5, 1.86, 1.34, 0.63, 0.6, 0.0, 0.0, 0.0, 0.0, 0.0, 0.0, 0.0, 0.0, 0.0, 0.0, 0.0, 1.26, 1.58, 2.98, 2.0, 1.0, 1.49, 1.26, 1.0, 1.9, 2.6, 2.6, 1.9, 1.4, 2.53, 2.84, 3.79, 3.79, 4.09, 5.81, 8.4, 10.43, 11.87, 13.05, 9.11, 6.02, 1.79, -1.2, 1.6, 6.07, 8.46, 7.21, 6.28, 5.43, 5.77, 4.65, 4.83, 2.2, 0.0, -0.79, 0.0, -1.4, -2.69, -2.35, -1.49, -0.7, -0.6, -1.34, -1.2, -0.0, -0.0, 0.89, 1.9, 2.79, 4.75, 5.06, 3.32, 1.33, 1.2, 0.54, 0.0, 0.0, 0.0, 0.0, 0.0, 0.0, 0.0, 1.13, 4.12, 4.12, 4.12, 4.12, 4.12, 4.12, 4.43, 4.37, 4.37, 4.11, 4.07, 3.73, 3.43, 2.84, 2.84, 2.23, 2.21, 1.86, 0.6, 0.0, 0.0, 0.0, 0.0, 0.0, 0.0, 0.0, 0.0, 0.0, 0.0, 0.0, 0.0, 1.8, 1.58, 2.53, 2.21, 2.21, 2.23, 1.9, 1.6, 1.6, 2.68, 2.97, 2.97, 3.04, 3.82, 5.26, 6.58, 6.23, 6.58, 7.5, 8.36, 9.28, 11.15, 12.5, 13.67, 13.88, 11.6, 8.15, 4.02, 5.59, 9.81, 8.82, 6.4, 6.16, 8.63, 10.95, 12.92, 13.07, 10.01, 10.8, 11.87, 8.6, 0.0, -2.12, -0.57, 0.0, -0.0, -0.0, 0.6, 1.2, 1.2, 1.79, 1.58, 1.9, 4.46, 4.65, 4.46, 3.47, 3.55, 2.72, 1.3, 0.0, -0.6, -0.54, -0.66, 0.0, 0.0, 1.16, 3.47, 4.12, 4.12, 4.12, 4.12, 4.12, 4.12, 4.12, 4.11, 4.11, 4.11, 4.07, 3.48, 2.86, 2.86, 2.23, 2.51, 1.88, 1.24, 0.57, 0.0, 0.0, 0.0, 0.0, 0.0, 0.0, 0.0, 0.0, 0.0, 0.0, 0.0, 0.88, 2.73, 2.84, 2.53, 2.21, 2.6, 1.9, 0.8, 0.89, 1.79, 2.68, 3.58, 4.92, 5.81, 6.26, 5.75, 6.14, 6.61, 6.61, 7.15, 7.15, 7.6, 7.15, 7.5, 7.76, 9.8, 12.65, 11.12, 7.6, 9.39, 9.6, 9.11, 9.32, 10.7, 12.42, 14.13, 15.81, 16.64, 15.24, 16.93, 18.08, 8.63, -1.2, -0.65, -0.0, -0.0, 1.24, 1.79, 2.6, 2.23, 1.9, 1.61, 2.12, 3.07, 5.06, 5.38, 5.38, 5.52, 5.62, 4.73, 1.4, 0.0, 0.0, -0.59, 0.0, 0.0, 0.61, 3.47, 4.12, 4.12, 4.12, 4.12, 4.12, 4.12, 4.12, 4.12, 3.83, 4.11, 3.79, 3.49, 3.15, 2.86, 2.48, 2.48, 1.8, 1.16, 0.65, 0.0, 0.0, 0.0, 0.0, 0.0, 0.0, 0.0, 0.0, -0.55, -0.58, -0.59, 0.53, 2.4, 2.4, 2.73, 2.48, 2.23, 0.76, 0.0, 0.0, 2.0, 3.2, 3.58, 4.02, 4.92, 4.92, 5.36, 5.81, 6.26, 5.81, 6.26, 5.81, 4.92, 4.02, 4.02, 4.92, 5.4, 7.95, 11.16, 9.75, 8.94, 8.87, 9.77, 10.28, 10.73, 11.62, 12.52, 11.88, 11.21, 10.16, 10.87, 13.46, 14.22, 1.88, -2.07, -1.6, 0.57, 1.79, 2.6, 3.84, 4.01, 3.64, 3.12, 2.6, 2.63, 3.45, 6.01, 7.18, 7.15, 6.33, 5.48, 3.47, 1.32, 0.72, 0.76, 0.0, 0.0, 0.0, 3.47, 3.84, 4.12, 4.12, 4.12, 4.12, 4.12, 4.12, 4.12, 4.12, 3.83, 4.11, 3.49, 3.49, 2.86, 2.86, 2.44, 2.22, 1.8, 1.33, 0.61, 0.59, 0.0, 0.0, 0.0, 0.0, 0.0, -0.56, -0.56, -0.59, -0.56, 0.0, 1.73, 2.4, 2.4, 1.4, 0.85, 0.0, 0.0, -0.0, 2.21, 1.6, 3.13, 3.58, 3.58, 4.47, 4.92, 5.36, 5.36, 5.36, 5.81, 4.92, 4.47, 3.58, 3.58, 4.02, 4.77, 5.01, 7.07, 7.81, 7.11, 7.6, 7.6, 7.97, 7.97, 8.87, 8.49, 9.32, 10.21, 9.1, 7.69, 6.44, 8.4, 7.04, 0.0, 0.0, 1.26, 1.49, 2.41, 2.98, 3.09, 2.99, 2.51, 1.9, 2.12, 1.86, 3.32, 5.37, 5.64, 4.5, 4.55, 2.06, 1.4, 1.32, 1.36, 0.0, 0.0, 0.0, 3.47, 3.84, 3.84, 4.12, 4.12, 4.12, 4.12, 4.12, 4.12, 4.12, 4.12, 3.83, 3.78, 3.49, 3.49, 3.12, 2.44, 2.22, 1.76, 1.8, 1.27, 1.27, 0.57, 0.0, 0.0, 0.0, 0.0, 0.0, -0.57, -0.57, -0.53, 0.0, 1.08, 1.14, 1.49, 1.49, 2.6, 1.3, 2.21, 3.2, 4.09, 3.04, 3.58, 2.68, 4.02, 4.02, 4.47, 4.47, 4.47, 4.47, 4.47, 4.02, 4.02, 4.02, 4.47, 4.47, 4.24, 3.16, 3.79, 5.36, 5.75, 5.4, 5.36, 6.14, 6.8, 6.16, 6.79, 7.6, 9.21, 10.23, 6.45, 2.82, 2.35, 5.42, 5.32, 5.4, 6.09, 6.21, 4.68, 2.23, 1.58, 0.76, 0.0, 0.54, 0.8, 0.6, 2.24, 2.2, 2.23, 2.28, 2.09, 2.15, 0.69, 0.69, 0.76, 0.67, 0.61, 0.61, 3.47, 3.84, 3.84, 3.84, 3.84, 3.84, 4.12, 4.12, 4.12, 4.12, 4.12, 3.83, 3.49, 3.22, 3.22, 2.84, 2.2, 2.2, 2.2, 2.44, 1.11, 0.59, 0.59, 1.23, 0.61, 0.0, 0.0, 0.0, 0.0, 0.0, 0.0, 0.0, 0.54, 0.59, 1.14, 1.6, 1.72, 3.45, 5.81, 4.92, 4.09, 3.82, 3.58, 3.58, 4.02, 4.02, 3.58, 4.02, 4.02, 4.47, 4.47, 4.02, 4.47, 4.47, 4.47, 4.24, 3.72, 3.16, 3.48, 4.11, 4.65, 4.8, 4.92, 6.14, 6.8, 5.75, 4.84, 4.09, 3.82, 3.52, 2.16, 1.55, 1.58, 3.07, 5.35, 7.69, 9.66, 10.48, 9.54, 6.17, 3.68, 1.47, 0.0, -0.0, -0.0, -0.0, -0.95, 0.61, 0.0, 0.78, 2.37, 2.25, 0.69, 0.0, 0.0, 0.66, 0.7, 0.7, 3.72, 3.84, 3.84, 3.84, 3.84, 3.84, 3.84, 3.84, 3.84, 3.84, 3.84, 3.76, 3.49, 3.49, 3.22, 3.22, 2.84, 2.84, 2.84, 2.4, 1.58, 0.61, 1.2, 1.8, 1.55, 1.3, 0.0, 0.0, 0.0, 0.0, 0.0, 0.0, 0.0, 0.58, 0.57, 0.56, 0.56, 2.8, 5.82, 6.61, 5.31, 4.38, 3.82, 4.24, 4.02, 3.58, 3.13, 3.58, 4.02, 4.47, 4.92, 5.36, 5.36, 5.36, 4.77, 4.24, 3.72, 3.48, 3.48, 3.48, 3.48, 4.24, 4.92, 5.59, 6.7, 6.0, 4.84, 2.21, -0.95, -1.23, 0.0, 0.75, 2.32, 3.18, 3.83, 3.85, 3.69, 5.45, 7.77, 8.68, 5.51, 0.76, -0.89, -0.0, 0.0, -0.89, -1.79, -1.61, -0.78, 0.0, 0.78, 2.28, 0.74, 0.0, 0.7, 1.49, 0.61, 0.61, 3.72, 4.12, 4.12, 3.84, 3.84, 3.84, 3.84, 3.84, 3.84, 3.84, 3.84, 3.47, 3.47, 3.49, 3.08, 2.84, 2.84, 2.84, 3.47, 3.22, 2.4, 1.16, 1.2, 0.87, 0.81, 0.82, 0.82, 0.59, 0.58, 0.58, 0.0, 0.0, 0.0, 0.0, 0.0, 0.0, 0.0, 1.65, 4.37, 5.99, 5.78, 4.92, 4.44, 4.44, 4.02, 4.02, 3.58, 3.58, 4.02, 4.47, 4.92, 5.81, 5.81, 5.36, 4.38, 3.58, 3.48, 1.49, 0.71, 1.27, 3.2, 4.02, 5.7, 6.61, 6.28, 5.34, 4.57, 2.68, 0.0, 0.0, 0.0, 0.0, 0.0, 0.78, 0.77, 0.0, -1.54, -1.5, 3.16, 5.47, 6.31, 3.96, -0.89, -1.16, -0.6, -0.45, -0.89, -1.26, -1.27, -1.35, -0.74, 0.0, 0.0, 0.0, 1.16, 1.41, 1.35, 1.35, 3.45, 3.85, 4.12, 4.12, 4.12, 4.12, 3.84, 3.84, 3.84, 3.84, 3.47, 3.47, 3.47, 3.22, 3.08, 3.08, 2.84, 2.4, 2.4, 2.47, 2.29, 2.22, 1.8, 0.57, 0.61, 0.58, 1.12, 1.1, 1.18, 0.55, 0.55, 0.0, 0.59, 0.56, 0.0, 0.0, 0.0, 1.1, 4.12, 6.28, 6.51, 6.23, 6.26, 6.26, 5.81, 5.81, 4.47, 4.02, 4.47, 4.77, 5.2, 4.92, 4.92, 4.77, 4.77, 3.22, 2.15, 1.2, 1.27, 1.58, 3.58, 4.8, 5.81, 6.14, 5.09, 4.57, 3.9, 3.58, 4.22, 3.11, 2.23, 1.58, -0.77, -3.9, -3.09, -3.1, -6.29, -6.09, -3.82, 0.0, 3.12, 5.51, 2.31, -0.89, -0.57, -0.0, 0.0, -0.6, -0.61, -1.35, -1.6, -0.71, 0.0, 0.7, 0.53, 0.66, 0.67, 0.67, 3.85, 3.85, 3.85, 4.12, 4.12, 4.12, 4.12, 4.12, 4.12, 3.72, 3.72, 3.72, 3.47, 3.47, 3.22, 2.82, 2.82, 2.36, 1.7, 1.84, 2.36, 2.18, 1.73, 1.19, 0.54, 0.58, 1.12, 1.18, 1.09, 1.16, 1.16, 0.55, 0.55, 0.59, 0.56, 0.0, 0.0, 1.18, 4.1, 6.7, 7.51, 7.4, 7.13, 7.15, 6.71, 5.81, 4.92, 4.92, 5.36, 5.36, 4.92, 4.47, 4.47, 4.24, 3.72, 4.09, 3.48, 2.21, 2.53, 1.9, 2.21, 4.22, 3.83, 3.74, 4.38, 3.95, 3.9, 3.47, 5.36, 7.21, 8.0, 8.94, 6.35, -1.5, -4.65, -4.22, -6.28, -7.61, -7.9, -5.54, -1.51, 2.84, 5.41, 3.11, 0.65, 0.0, 0.0, 0.0, 0.61, 0.0, 0.0, 0.0, 1.36, 0.66, 0.0, 0.0, 0.0, 0.0, 4.1, 4.1, 3.85, 3.85, 4.12, 4.12, 4.12, 4.12, 4.12, 3.45, 3.45, 3.45, 3.45, 3.47, 3.47, 2.82, 2.82, 2.36, 1.67, 1.67, 1.84, 2.18, 1.88, 1.7, 1.16, 1.14, 1.12, 1.2, 1.73, 1.71, 1.16, 1.09, 1.09, 1.09, 1.18, 0.55, 0.0, 1.18, 3.84, 6.79, 8.0, 7.58, 7.4, 7.58, 7.15, 6.71, 5.81, 5.36, 5.81, 5.36, 4.92, 4.47, 4.02, 3.82, 3.72, 4.09, 4.22, 5.2, 2.12, 1.2, 2.86, 4.4, 4.38, 4.85, 4.38, 4.47, 3.58, 2.12, 4.4, 6.28, 8.49, 10.59, 4.75, -2.53, -3.16, -2.23, -3.49, -6.07, -8.4, -8.76, -5.78, -1.52, 2.25, 3.91, 3.11, 1.49, 0.0, 0.65, 1.84, 3.79, 1.98, 2.82, 2.06, 1.47, 0.0, 0.0, 0.0, 0.0, 4.1, 4.1, 4.1, 3.85, 3.85, 3.85, 3.85, 3.85, 3.45, 3.45, 3.45, 3.45, 3.45, 3.45, 3.22, 3.04, 2.8, 2.32, 2.32, 1.8, 1.67, 1.7, 2.18, 1.7, 1.7, 1.14, 1.23, 1.2, 1.73, 1.73, 1.71, 1.71, 1.16, 1.16, 1.16, 1.16, 0.58, 1.73, 4.47, 7.15, 7.76, 7.48, 7.26, 7.51, 7.13, 6.71, 6.71, 6.26, 5.7, 5.36, 4.47, 4.02, 3.58, 3.39, 3.82, 4.09, 4.66, 6.02, 5.4, 2.24, 2.6, 3.2, 4.85, 4.92, 4.47, 4.47, 4.47, 4.92, 2.5, 2.84, 3.6, 4.38, 8.02, 3.06, 0.0, -2.53, -3.22, -5.75, -8.37, -9.18, -8.66, -5.59, -2.7, -0.68, 0.0, 0.0, 0.76, 2.15, 3.84, 6.08, 5.21, 4.87, 4.28, 2.66, 1.27, 0.57, 0.63, 0.63, 3.84, 3.84, 4.1, 4.1, 3.85, 3.85, 3.85, 3.85, 3.45, 3.45, 3.45, 3.45, 3.45, 3.45, 3.45, 2.8, 2.8, 2.32, 2.32, 2.32, 1.8, 2.36, 2.18, 2.18, 1.84, 1.67, 1.65, 1.76, 1.63, 1.73, 1.73, 1.71, 1.71, 1.71, 1.71, 1.16, 1.16, 2.92, 5.38, 7.15, 7.35, 7.48, 7.09, 6.94, 6.68, 5.79, 5.33, 4.89, 4.34, 3.98, 3.58, 4.02, 3.58, 3.82, 3.82, 4.66, 5.36, 5.36, 5.81, 5.81, 2.68, 2.12, 2.12, 4.92, 4.92, 4.47, 4.47, 3.13, 3.32, 1.6, 0.0, 1.58, 7.66, 10.12, 6.28, 0.78, -2.51, -5.05, -7.81, -9.11, -10.37, -9.05, -6.92, -4.8, -3.16, 0.0, 1.88, 3.74, 4.4, 7.06, 8.63, 6.92, 5.7, 4.0, 2.12, 1.35, 1.47, 1.47, 3.42, 3.42, 3.84, 4.1, 4.1, 3.85, 3.85, 3.85, 3.45, 3.45, 3.68, 3.68, 3.68, 3.45, 3.45, 3.0, 3.0, 2.49, 2.29, 2.29, 2.32, 2.16, 2.36, 2.18, 1.84, 1.67, 1.65, 1.76, 1.63, 1.73, 1.73, 1.73, 1.71, 1.71, 1.71, 1.16, 1.71, 3.42, 5.69, 6.79, 6.79, 7.07, 7.01, 6.47, 5.7, 5.33, 4.88, 4.43, 3.98, 3.53, 3.58, 3.58, 4.47, 4.77, 5.2, 5.64, 5.36, 5.2, 5.2, 5.36, 5.4, 3.13, 1.79, 4.38, 4.47, 4.47, 4.02, 3.07, 3.13, 2.97, 0.88, 2.17, 5.55, 11.16, 14.21, 12.07, 2.12, -5.44, -3.97, -4.41, -7.56, -9.4, -8.93, -6.58, -1.35, 1.88, 4.4, 4.4, 4.66, 5.94, 7.03, 8.22, 6.53, 4.87, 3.51, 2.9, 2.82, 2.82, 3.42, 3.42, 3.84, 3.84, 3.68, 3.68, 3.45, 3.45, 3.45, 3.68, 3.68, 3.42, 3.42, 3.68, 3.45, 3.45, 3.0, 2.77, 2.29, 2.29, 2.29, 2.32, 2.36, 2.36, 2.36, 1.67, 1.65, 1.76, 1.73, 1.73, 1.73, 1.71, 1.71, 1.71, 1.71, 1.16, 1.73, 3.42, 5.37, 5.93, 5.65, 5.93, 5.75, 5.99, 5.24, 4.44, 3.98, 3.58, 3.58, 4.02, 4.02, 4.47, 4.47, 4.88, 5.75, 5.31, 5.36, 4.47, 3.9, 4.02, 5.2, 5.09, 4.92, 4.38, 4.92, 4.02, 2.24, 2.17, 2.24, 3.22, 1.55, 0.83, 3.21, 7.25, 12.56, 15.94, 12.73, -0.54, -3.16, -0.0, 0.63, -1.2, -2.4, -1.86, 0.6, 3.07, 4.09, 4.46, 4.8, 4.66, 4.66, 6.01, 7.79, 6.67, 5.77, 4.8, 4.23, 4.23, 3.42, 3.42, 3.42, 3.42, 3.42, 3.68, 3.68, 3.45, 3.45, 3.68, 3.42, 3.42, 3.42, 3.42, 3.42, 3.21, 2.77, 2.77, 2.29, 2.29, 2.29, 2.14, 2.32, 2.36, 2.36, 2.16, 1.8, 1.76, 1.73, 1.84, 1.71, 1.71, 1.71, 1.71, 1.71, 1.16, 2.26, 3.42, 5.06, 5.65, 5.65, 5.06, 5.21, 5.09, 4.77, 3.98, 3.13, 3.13, 4.02, 4.47, 4.92, 4.92, 4.47, 4.47, 4.44, 4.85, 4.24, 4.02, 3.47, 4.02, 4.38, 5.09, 5.36, 4.92, 4.02, 4.02, 1.7, 0.4, 0.0, 0.6, 1.7, 0.0, 0.0, 0.0, 4.07, 6.24, 9.8, 6.8, 0.0, 0.61, 3.82, 3.98, 1.79, 1.7, 2.8, 4.0, 4.46, 5.05, 5.09, 4.46, 3.45, 4.43, 7.01, 7.69, 6.95, 6.27, 5.52, 5.52, 3.42, 3.42, 3.42, 3.42, 3.42, 3.42, 3.68, 3.68, 3.68, 3.68, 3.42, 3.42, 3.42, 3.42, 3.42, 3.42, 2.77, 2.77, 2.96, 2.44, 2.29, 2.29, 2.32, 2.36, 2.36, 2.36, 2.32, 1.76, 1.73, 2.23, 1.71, 1.71, 1.71, 1.73, 1.61, 1.61, 2.26, 3.42, 4.47, 5.37, 5.37, 4.75, 5.29, 6.28, 6.07, 4.77, 3.53, 4.47, 5.36, 5.36, 5.33, 4.89, 4.43, 3.53, 3.13, 2.6, 3.2, 4.02, 4.02, 4.47, 4.85, 5.31, 5.36, 4.92, 4.47, 4.47, 2.24, -0.0, -1.26, -0.45, 0.0, 0.79, -1.33, -4.93, -5.37, -3.04, 0.0, 6.31, 3.87, 0.0, 0.65, 2.49, 2.63, 3.88, 5.31, 5.69, 5.31, 4.46, 4.65, 4.36, 3.48, 3.72, 5.04, 7.03, 6.87, 6.32, 5.55, 5.55, 3.42, 3.42, 3.42, 3.42, 3.42, 3.42, 3.42, 3.42, 3.42, 3.42, 3.42, 3.42, 3.42, 3.42, 3.42, 3.42, 2.96, 2.96, 2.96, 2.26, 2.26, 2.29, 2.29, 2.32, 2.36, 2.36, 2.16, 2.14, 2.26, 2.23, 1.71, 1.71, 1.73, 1.73, 1.73, 1.73, 2.26, 3.42, 4.47, 4.75, 4.75, 4.47, 5.29, 5.81, 6.04, 6.02, 5.59, 5.33, 5.34, 5.24, 4.77, 4.11, 3.82, 2.4, 1.6, 0.95, 1.6, 3.58, 5.81, 5.36, 5.36, 5.36, 4.92, 4.02, 4.47, 4.85, 5.36, 2.54, 0.0, -2.54, -0.85, 0.79, 0.76, -4.74, -10.15, -8.53, -4.81, -0.79, 3.95, 2.37, -1.24, -0.0, 2.17, 5.2, 7.23, 6.98, 6.01, 5.21, 4.14, 4.22, 4.36, 4.65, 4.96, 5.29, 5.81, 5.64, 5.64, 5.64, 3.64, 3.64, 3.64, 3.64, 3.42, 3.42, 3.42, 3.42, 3.42, 3.42, 3.42, 3.42, 3.64, 3.64, 3.42, 3.42, 2.96, 2.96, 2.96, 2.26, 2.26, 2.26, 2.29, 2.8, 2.82, 2.36, 2.36, 2.32, 2.29, 1.73, 1.73, 1.73, 1.73, 1.63, 1.63, 1.63, 2.29, 3.21, 4.1, 4.47, 4.75, 4.47, 5.29, 5.81, 5.99, 6.07, 6.02, 5.57, 5.24, 4.77, 4.3, 4.11, 3.88, 2.5, 1.26, 0.63, 2.68, 4.92, 6.26, 6.26, 5.81, 4.92, 4.47, 4.02, 4.02, 3.74, 4.38, 5.81, 4.11, 0.0, -1.79, 0.0, 3.11, 0.75, -5.94, -9.3, -6.88, -3.95, -1.57, 0.79, -0.68, -1.0, 1.7, 5.08, 6.57, 6.34, 6.08, 5.18, 4.28, 4.22, 4.02, 4.29, 3.44, 3.47, 4.17, 4.24, 4.24, 4.24, 3.64, 3.64, 3.64, 3.64, 3.64, 3.42, 3.42, 3.42, 3.42, 3.42, 3.42, 3.42, 3.42, 3.4, 3.42, 3.42, 2.96, 2.96, 2.75, 2.26, 2.26, 2.26, 2.29, 2.32, 2.8, 2.36, 2.36, 2.16, 2.51, 1.76, 1.63, 1.63, 1.63, 1.63, 1.63, 1.76, 2.29, 3.45, 4.1, 4.1, 4.1, 4.75, 5.49, 6.0, 5.57, 5.24, 5.09, 5.09, 4.77, 4.3, 3.87, 4.11, 4.11, 4.4, 4.8, 2.91, 4.47, 6.26, 6.26, 5.81, 5.81, 4.47, 4.02, 2.24, 2.24, 2.17, 2.53, 2.68, 3.49, 2.32, 0.0, 0.0, 1.1, 3.25, 0.0, -5.46, -4.84, -2.29, -3.02, -2.11, 0.0, 0.0, 0.65, 2.86, 3.85, 4.69, 4.6, 4.08, 3.88, 3.47, 2.88, 2.8, 2.12, 2.71, 3.41, 3.47, 3.58, 3.58, 3.4, 3.4, 3.4, 3.4, 3.64, 3.42, 3.42, 3.42, 3.42, 3.42, 3.42, 3.42, 3.64, 3.4, 3.4, 3.42, 2.96, 2.96, 2.26, 2.26, 2.26, 2.26, 2.29, 2.29, 2.32, 2.36, 2.36, 1.67, 1.65, 1.55, 1.76, 2.26, 1.73, 1.73, 1.63, 1.76, 2.29, 3.45, 4.1, 3.84, 4.47, 5.06, 5.49, 6.1, 5.4, 5.09, 4.77, 4.3, 3.87, 3.82, 3.87, 4.3, 4.6, 5.09, 5.57, 5.99, 5.7, 6.23, 5.78, 5.36, 5.36, 4.02, 4.92, 2.24, 2.68, 2.68, 2.97, 0.95, 1.2, 2.16, 2.4, 0.0, -1.7, 0.0, 1.51, -0.69, -1.79, -0.71, -0.73, -1.36, 0.0, 0.71, 0.67, 0.7, 1.54, 2.1, 2.28, 2.25, 2.31, 1.33, 1.6, 1.35, 0.69, 0.68, 0.69, 2.35, 2.12, 2.12, 3.2, 3.2, 3.4, 3.4, 3.4, 3.64, 3.42, 3.42, 3.42, 3.42, 3.42, 3.42, 3.64, 3.4, 3.4, 2.75, 2.75, 2.75, 2.26, 2.26, 2.26, 2.26, 2.44, 2.29, 2.32, 2.36, 2.16, 1.67, 1.65, 1.63, 1.73, 1.71, 1.73, 1.73, 1.63, 1.76, 2.77, 3.45, 3.45, 4.1, 4.47, 5.35, 6.13, 6.0, 5.31, 4.6, 4.19, 4.11, 3.82, 3.82, 3.87, 4.3, 4.77, 4.6, 5.02, 5.24, 4.77, 4.88, 5.33, 5.33, 5.81, 4.92, 4.47, 4.92, 2.24, 2.24, 3.13, 2.24, 1.9, 2.4, 3.11, 1.23, -1.23, -2.39, 0.0, 1.54, 0.0, 0.0, 0.0, 0.0, 0.0, 0.7, 0.71, 0.0, 0.0, 0.0, 0.58, 1.07, 1.41, 1.2, 0.57, 0.0, -0.71, -0.7, -0.68, 0.69, 0.71, 0.71, 2.75, 2.75, 3.4, 3.4, 3.4, 3.4, 3.42, 3.42, 3.42, 3.42, 3.42, 3.42, 3.4, 3.4, 3.4, 2.92, 2.75, 2.75, 2.26, 2.26, 2.26, 2.26, 2.26, 2.29, 2.32, 2.16, 2.16, 1.8, 1.65, 1.63, 1.73, 1.61, 1.73, 1.18, 1.1, 1.76, 2.8, 3.45, 3.45, 4.1, 4.75, 5.59, 5.75, 5.6, 5.08, 4.4, 4.11, 3.7, 3.7, 3.87, 4.3, 4.3, 4.6, 4.6, 4.11, 4.3, 4.43, 4.44, 4.44, 4.92, 4.47, 4.92, 4.47, 4.47, 4.02, 3.58, 1.2, 2.0, 2.21, 3.07, 3.64, 3.6, 1.05, -0.75, 0.0, 2.34, 2.23, 0.72, 0.0, 0.0, -0.71, 0.0, 0.0, 0.0, 0.0, 0.0, 0.0, 0.61, 1.24, 1.26, 0.0, -0.65, -1.6, -2.12, -2.06, -2.1, 0.0, 0.0, 2.75, 2.75, 3.2, 3.4, 3.4, 3.4, 3.4, 3.2, 3.42, 3.42, 3.42, 3.42, 3.4, 2.92, 2.92, 2.92, 2.75, 2.26, 2.26, 2.26, 2.26, 2.26, 2.26, 2.29, 2.32, 2.32, 1.67, 1.8, 1.65, 1.63, 1.73, 1.18, 1.18, 1.1, 1.2, 1.65, 2.32, 2.8, 3.72, 4.12, 4.75, 5.35, 5.75, 5.08, 4.93, 4.55, 4.27, 4.11, 4.11, 4.34, 4.3, 4.3, 4.11, 4.11, 4.11, 4.3, 4.43, 4.44, 4.44, 4.92, 4.92, 4.02, 4.02, 3.13, 2.68, 2.4, 0.95, 0.95, 1.9, 2.84, 3.76, 3.91, 3.39, 1.52, 0.0, 0.74, 3.06, 3.07, 1.55, 0.0, 0.0, 0.0, 0.0, 0.0, 0.0, 0.0, 0.0, 1.26, 1.86, 1.49, 0.6, -0.71, -1.6, -2.29, -2.18, -2.17, -1.36, -1.36, 2.75, 2.75, 2.75, 2.92, 2.92, 2.92, 2.92, 3.4, 3.2, 3.2, 3.42, 3.2, 2.92, 2.92, 2.92, 2.92, 2.75, 2.26, 2.26, 2.26, 1.73, 1.73, 2.26, 2.29, 2.32, 2.32, 1.67, 1.8, 1.76, 1.63, 1.73, 1.18, 1.1, 0.56, 1.12, 1.8, 2.16, 2.82, 3.47, 4.12, 4.45, 5.01, 5.21, 5.43, 4.65, 4.07, 4.0, 4.27, 4.6, 4.6, 4.19, 4.3, 3.7, 4.11, 4.11, 4.11, 4.34, 4.44, 4.44, 4.47, 4.47, 4.02, 4.02, 2.68, 2.54, 2.8, 0.95, 2.23, 2.6, 3.22, 3.79, 4.95, 5.45, 4.65, 0.71, -2.3, -0.66, 0.74, 0.78, 1.39, 2.09, 1.41, 0.65, 0.0, -0.0, 0.45, 1.26, 1.9, 2.5, 1.88, 1.61, 0.0, -0.65, -1.41, -1.6, -2.06, -2.23, -2.06, 2.75, 2.75, 2.75, 2.75, 2.92, 2.92, 2.92, 2.92, 2.92, 2.75, 3.2, 2.92, 2.92, 2.92, 2.92, 2.92, 2.92, 2.26, 2.26, 2.26, 1.73, 1.73, 1.73, 2.29, 2.14, 2.32, 1.67, 1.8, 1.76, 1.63, 1.18, 1.18, 0.56, 0.56, 0.57, 1.14, 2.36, 2.82, 3.47, 3.84, 4.12, 4.74, 5.21, 5.46, 5.01, 4.65, 4.0, 4.8, 4.8, 4.8, 4.27, 3.7, 3.82, 3.6, 4.11, 4.11, 4.34, 4.44, 4.44, 4.44, 4.92, 4.47, 4.47, 2.68, 2.4, 2.8, 3.82, 2.23, 3.6, 4.15, 5.09, 5.75, 5.46, 6.4, 5.28, -2.2, -7.45, -5.28, -2.09, 0.0, 2.1, 2.82, 1.4, 0.0, -0.0, 0.89, 1.86, 1.88, 1.84, 1.84, 1.33, 0.59, 0.0, -0.78, -1.45, -1.49, -2.12, -2.23, 2.75, 2.75, 2.75, 2.75, 2.92, 2.92, 2.92, 2.92, 2.92, 2.92, 2.92, 2.92, 2.92, 2.92, 2.92, 2.92, 2.92, 2.26, 2.26, 1.73, 1.73, 1.73, 1.73, 1.76, 2.29, 1.8, 1.8, 1.8, 1.76, 1.63, 1.18, 1.18, 0.56, 0.56, 0.57, 1.14, 2.36, 3.49, 3.47, 3.47, 4.12, 4.12, 4.94, 5.21, 5.82, 4.94, 4.65, 4.93, 4.93, 4.55, 4.27, 4.11, 3.82, 3.82, 4.11, 4.11, 4.3, 4.44, 4.44, 4.44, 4.92, 4.47, 3.13, 3.58, 3.2, 3.39, 1.7, 1.86, 2.54, 4.66, 4.85, 4.8, 5.03, 5.86, 8.67, 3.88, -6.07, -9.54, -5.21, -0.69, 1.44, 2.89, 2.15, 0.64, 0.0, 0.63, 1.58, 1.4, 1.27, 0.73, 0.0, 0.0, -0.74, -1.47, -2.28, -2.47, -2.83, -2.12, 2.75, 2.75, 2.75, 2.75, 2.75, 2.92, 2.92, 2.92, 2.92, 2.92, 2.92, 2.92, 2.92, 2.92, 2.92, 2.92, 2.4, 2.26, 2.26, 1.73, 1.73, 1.73, 1.73, 1.76, 1.76, 1.8, 1.8, 1.8, 1.2, 1.1, 1.18, 1.1, 0.56, 0.56, 0.61, 1.12, 2.36, 3.22, 3.47, 3.47, 4.12, 4.12, 4.71, 5.21, 5.21, 5.82, 5.21, 4.84, 4.65, 4.65, 4.55, 3.88, 3.87, 3.87, 3.87, 4.3, 4.3, 4.44, 4.44, 4.44, 4.92, 4.92, 5.36, 4.02, 3.82, 3.82, 1.26, 3.82, 2.12, 4.38, 4.38, 4.57, 3.76, 4.66, 6.67, 9.67, 4.07, -2.8, -4.47, 0.0, 2.73, 4.31, 4.86, 2.76, 0.0, 0.0, 0.54, 0.61, 0.0, 0.0, -0.72, -1.4, -2.83, -3.76, -3.91, -3.85, -3.95, -3.95, 2.26, 2.26, 2.75, 2.75, 2.75, 2.92, 2.92, 2.92, 2.92, 2.92, 2.92, 2.92, 2.92, 2.92, 2.92, 2.4, 2.4, 2.26, 2.26, 1.73, 1.73, 1.73, 1.73, 1.76, 1.76, 1.8, 1.8, 1.12, 1.2, 1.1, 1.18, 1.1, 0.56, 0.0, 0.56, 1.65, 2.8, 3.47, 3.47, 3.45, 4.12, 4.43, 4.71, 4.71, 4.65, 4.37, 4.71, 4.65, 4.65, 4.65, 4.29, 4.4, 4.11, 3.87, 3.87, 4.3, 4.3, 4.44, 4.44, 4.44, 4.92, 4.92, 4.47, 4.47, 4.24, 4.24, 4.24, 3.82, 2.24, 2.68, 3.95, 3.6, 3.49, 4.26, 4.6, 6.64, 9.42, 5.45, -0.57, 0.0, 2.41, 4.8, 5.65, 5.01, 2.13, 0.0, 0.0, 0.0, -0.67, -1.49, -2.23, -3.78, -4.5, -4.58, -5.3, -4.6, -4.6, -4.6, 2.26, 2.26, 2.26, 2.26, 2.75, 2.92, 2.92, 2.92, 2.92, 2.92, 2.92, 2.92, 2.92, 2.92, 2.4, 2.4, 2.4, 2.26, 1.73, 1.73, 1.73, 1.73, 1.73, 1.76, 1.76, 1.65, 1.8, 1.12, 1.2, 1.1, 1.18, 0.56, 0.56, 0.0, 0.61, 1.65, 2.8, 3.22, 3.45, 3.45, 4.12, 4.43, 4.43, 4.71, 4.37, 4.37, 4.65, 4.65, 4.29, 4.07, 4.29, 4.55, 4.52, 4.3, 3.87, 3.87, 4.3, 4.44, 4.44, 4.88, 4.92, 4.92, 4.92, 5.81, 4.77, 4.24, 4.24, 4.24, 2.54, 3.51, 3.47, 2.98, 2.68, 3.2, 3.06, 4.01, 6.35, 8.8, 6.28, 2.47, 2.2, 2.82, 4.35, 5.0, 3.47, 0.71, -0.65, -1.84, -2.8, -3.7, -3.53, -4.5, -5.3, -5.63, -5.41, -5.28, -5.28, -5.28, 2.26, 2.26, 2.26, 2.26, 2.26, 2.4, 2.4, 2.4, 2.4, 2.92, 2.92, 2.92, 2.4, 2.4, 2.4, 2.4, 2.4, 1.73, 1.73, 1.73, 1.73, 1.73, 1.73, 1.76, 1.76, 1.65, 1.12, 1.12, 1.2, 1.1, 1.18, 0.56, 0.56, 0.56, 1.12, 1.8, 2.8, 2.8, 3.45, 3.45, 4.12, 3.84, 4.43, 4.71, 4.71, 4.37, 4.37, 4.65, 4.07, 4.07, 4.07, 4.37, 4.27, 4.3, 3.87, 3.87, 4.3, 4.44, 4.44, 4.92, 4.92, 4.92, 5.36, 5.36, 5.81, 4.24, 4.24, 2.12, 2.54, 4.02, 3.82, 3.2, 2.41, 3.11, 3.27, 3.21, 4.75, 6.47, 8.51, 7.71, 5.99, 4.24, 3.62, 3.59, 3.62, 2.06, -0.61, -2.51, -4.22, -4.28, -5.43, -5.13, -5.38, -5.64, -5.49, -4.83, -4.83, -4.83, 2.26, 2.26, 2.26, 2.26, 2.26, 2.26, 2.4, 2.4, 2.4, 2.4, 2.4, 2.4, 2.4, 2.4, 2.4, 2.4, 1.84, 1.73, 1.73, 1.73, 1.18, 1.18, 1.18, 1.63, 1.76, 1.12, 1.12, 1.12, 1.2, 1.1, 1.18, 0.56, 0.56, 0.61, 1.12, 1.8, 2.32, 2.8, 3.0, 3.45, 4.12, 3.84, 4.12, 4.12, 4.11, 4.11, 4.11, 4.11, 4.07, 4.07, 4.07, 4.0, 4.27, 4.11, 3.87, 3.87, 3.87, 4.44, 4.47, 4.92, 4.92, 5.36, 5.81, 6.23, 4.92, 4.47, 3.82, 1.7, 2.12, 3.13, 3.47, 3.6, 3.58, 3.22, 3.2, 3.45, 3.95, 5.48, 7.23, 9.12, 9.39, 8.03, 5.37, 4.29, 3.53, 1.49, -0.7, -4.07, -5.3, -5.72, -4.46, -2.98, -3.72, -3.9, -4.74, -3.72, -3.72, -3.72, 2.26, 2.26, 2.26, 2.26, 2.26, 2.26, 2.26, 2.26, 2.26, 2.4, 2.4, 2.4, 2.4, 2.23, 2.23, 1.84, 1.73, 1.73, 1.73, 1.73, 1.18, 1.18, 1.18, 1.1, 1.12, 1.12, 1.12, 1.12, 1.1, 1.1, 0.59, 0.56, 0.56, 0.57, 1.12, 1.8, 2.32, 2.8, 3.0, 3.45, 4.12, 3.84, 4.12, 4.12, 3.83, 4.11, 4.11, 4.11, 4.11, 4.07, 4.07, 4.0, 4.27, 3.88, 3.87, 3.87, 3.98, 4.43, 4.47, 4.92, 4.92, 5.36, 5.7, 6.16, 5.33, 4.47, 4.02, 3.82, 4.02, 1.7, 3.13, 3.47, 3.58, 3.35, 3.9, 4.03, 4.83, 5.51, 7.01, 8.66, 9.49, 9.43, 9.31, 7.92, 4.86, 0.0, -2.4, -4.12, -5.09, -1.61, -1.2, -1.49, -2.21, -2.86, -3.14, -3.49, -3.49, -3.49, 2.26, 2.26, 2.26, 2.26, 2.26, 2.26, 2.26, 2.26, 2.26, 2.26, 2.4, 2.4, 2.23, 2.23, 1.71, 1.71, 1.73, 1.73, 1.73, 1.18, 1.18, 1.18, 1.1, 1.1, 1.12, 1.12, 1.12, 1.12, 0.56, 0.56, 0.59, 0.56, 0.56, 0.57, 1.12, 1.8, 2.32, 3.0, 3.0, 3.45, 3.72, 3.84, 3.84, 4.12, 3.83, 4.11, 4.11, 4.11, 4.11, 4.07, 4.07, 4.0, 4.0, 3.88, 4.11, 3.87, 3.98, 4.43, 4.47, 4.92, 4.92, 5.33, 5.99, 6.3, 5.7, 5.36, 4.92, 4.34, 3.82, 1.79, 1.79, 1.79, 2.12, 4.19, 4.43, 4.65, 5.1, 6.42, 7.73, 8.76, 8.84, 9.67, 11.95, 12.86, 8.59, -0.45, -3.45, -2.68, -1.24, -1.24, -1.26, -1.26, -1.86, -2.8, -3.32, -3.32, -3.32, -3.32, 1.73, 1.73, 1.73, 1.73, 1.73, 1.73, 1.73, 1.73, 2.26, 2.26, 2.4, 1.71, 1.71, 1.71, 1.71, 1.61, 1.73, 1.73, 1.18, 1.18, 1.18, 1.18, 1.1, 1.1, 1.12, 1.12, 1.12, 0.57, 0.56, 0.56, 0.59, 0.56, 0.56, 0.57, 1.12, 1.65, 2.14, 2.77, 3.0, 3.45, 3.45, 3.47, 3.84, 3.84, 4.12, 3.83, 4.11, 4.11, 4.11, 4.07, 4.07, 4.0, 4.0, 3.88, 4.11, 4.11, 3.98, 4.43, 4.47, 4.47, 4.92, 5.33, 5.99, 6.0, 5.31, 4.85, 4.92, 4.38, 3.47, 3.13, 2.6, 2.24, 2.24, 2.6, 4.8, 5.46, 5.69, 6.32, 7.97, 8.46, 8.56, 9.12, 10.98, 13.25, 10.9, 0.89, -0.54, 0.0, 0.65, 0.0, -1.0, -1.7, -1.79, -2.24, -2.24, -1.79, -1.79, -1.79, 1.73, 1.61, 1.73, 1.73, 1.61, 1.61, 1.73, 1.73, 1.73, 1.73, 1.84, 1.71, 1.71, 1.71, 1.61, 1.73, 1.73, 1.18, 1.18, 1.18, 1.18, 1.1, 1.1, 1.1, 1.12, 1.12, 0.57, 0.57, 0.56, 0.56, 0.59, 0.56, 0.56, 1.12, 1.12, 1.65, 2.29, 2.29, 3.0, 3.45, 3.45, 3.47, 3.47, 3.84, 4.12, 3.83, 4.11, 4.11, 4.11, 3.79, 4.07, 4.07, 4.0, 3.72, 3.88, 4.11, 4.3, 4.43, 4.47, 4.47, 4.92, 5.33, 5.31, 5.47, 5.08, 5.09, 4.92, 4.92, 4.02, 4.47, 3.95, 2.6, 2.24, 2.24, 3.04, 5.75, 6.44, 6.39, 7.35, 7.82, 8.66, 8.56, 8.72, 8.87, 8.88, -0.0, -0.0, 0.0, 0.0, 0.63, 0.0, -0.63, -1.2, -1.2, -0.95, -0.0, -0.0, -0.0, 1.61, 1.71, 1.61, 1.61, 1.61, 1.61, 1.61, 1.73, 1.73, 1.73, 1.61, 1.71, 1.71, 1.61, 1.61, 1.18, 1.18, 1.18, 1.18, 1.18, 1.1, 1.1, 1.1, 1.1, 1.12, 1.12, 0.57, 0.57, 0.56, 0.56, 0.56, 0.56, 0.61, 1.12, 1.12, 1.76, 1.76, 2.29, 3.0, 3.45, 3.45, 3.45, 3.47, 3.47, 4.12, 4.12, 3.83, 4.11, 4.11, 4.11, 3.79, 4.07, 4.0, 3.72, 3.72, 4.11, 4.3, 4.43, 4.47, 4.47, 4.47, 4.89, 5.09, 4.65, 4.65, 4.27, 4.57, 4.85, 4.92, 4.47, 4.47, 4.66, 3.95, 2.68, 2.68, 3.95, 5.43, 5.82, 6.39, 6.88, 7.12, 7.01, 6.31, 5.47, 4.12, -0.0, -0.0, -0.63, -0.45, 0.57, 1.88, 1.24, 0.0, -0.0, -0.0, -0.0, -0.0, -0.0, 1.71, 1.71, 1.71, 1.71, 1.71, 1.61, 1.61, 1.61, 1.73, 1.73, 1.61, 1.61, 1.61, 1.09, 1.09, 1.18, 1.18, 1.18, 1.18, 1.1, 1.1, 1.1, 1.1, 1.1, 1.12, 0.57, 0.57, 0.57, 0.56, 0.0, 0.0, 0.56, 0.57, 1.12, 1.2, 1.76, 1.76, 2.29, 2.77, 3.0, 3.45, 3.45, 3.47, 3.47, 3.84, 4.12, 4.12, 3.83, 4.11, 4.11, 4.11, 4.07, 4.07, 3.43, 3.72, 3.88, 4.11, 4.43, 4.47, 4.47, 4.47, 4.88, 4.6, 4.55, 4.07, 4.0, 4.22, 4.15, 3.6, 3.74, 3.04, 4.02, 4.24, 3.95, 3.13, 3.95, 5.34, 6.07, 6.06, 5.49, 6.31, 7.12, 6.2, 4.59, 2.0, 0.59, 0.65, 0.54, 1.24, 2.17, 3.07, 2.84, 1.24, 0.0, 0.0, -0.89, -0.89, -0.89, 1.16, 1.16, 1.16, 1.16, 1.16, 1.16, 1.09, 1.09, 1.18, 1.18, 1.18, 1.09, 1.09, 1.09, 1.18, 1.18, 1.18, 1.18, 1.1, 1.1, 0.56, 0.56, 1.1, 1.1, 0.57, 0.57, 0.58, 0.57, 0.56, 0.0, 0.0, 0.57, 0.57, 1.12, 1.2, 1.2, 1.76, 2.29, 2.77, 3.0, 3.0, 3.45, 3.22, 3.47, 3.47, 3.84, 4.12, 4.12, 3.83, 4.11, 4.11, 3.79, 3.48, 3.43, 3.72, 3.72, 4.11, 4.3, 4.02, 4.02, 4.43, 4.44, 4.34, 4.27, 3.48, 3.16, 3.14, 2.68, 3.2, 2.6, 2.23, 2.68, 3.13, 3.07, 3.58, 4.02, 5.77, 6.94, 7.02, 6.24, 6.42, 6.87, 8.82, 7.88, 0.89, 0.66, 3.07, 3.07, 3.53, 4.02, 5.05, 4.07, 1.84, 0.71, 0.0, -1.79, -1.79, -1.79, 1.16, 1.16, 1.16, 1.16, 1.16, 1.09, 1.09, 1.09, 1.18, 1.18, 1.18, 1.18, 1.18, 1.18, 1.18, 1.18, 1.18, 1.1, 0.56, 0.56, 0.56, 0.56, 0.56, 0.56, 0.57, 0.57, 0.58, 0.57, 0.0, 0.0, 0.56, 0.57, 0.57, 0.57, 1.2, 1.2, 1.76, 2.29, 2.77, 3.0, 3.0, 2.8, 2.8, 3.47, 3.47, 3.47, 3.84, 4.12, 4.12, 3.83, 4.11, 4.11, 3.79, 3.78, 3.43, 3.72, 3.72, 3.87, 3.98, 4.02, 3.98, 3.98, 4.43, 4.11, 3.43, 3.43, 3.14, 3.32, 3.2, 2.6, 2.97, 2.54, 2.24, 2.68, 3.13, 2.68, 4.92, 6.28, 7.41, 7.27, 6.88, 7.24, 9.72, 12.51, 1.16, 0.66, 5.43, 6.71, 6.11, 5.44, 5.36, 5.69, 3.9, 1.33, 0.0, -1.79, -1.79, -1.79, 1.16, 1.16, 1.16, 1.16, 1.16, 1.09, 1.09, 1.09, 1.18, 1.18, 1.18, 1.18, 1.18, 1.18, 1.18, 1.18, 0.56, 0.56, 0.56, 0.56, 0.56, 0.56, 0.56, 0.61, 0.57, 0.57, 0.58, 0.0, 0.0, 0.0, 0.56, 0.57, 0.57, 0.57, 1.2, 1.1, 1.63, 2.29, 2.29, 2.29, 3.0, 2.8, 2.8, 3.22, 3.47, 3.47, 3.84, 3.84, 4.12, 4.12, 3.83, 4.11, 3.79, 3.48, 3.43, 3.43, 3.35, 3.6, 3.98, 4.02, 4.02, 3.98, 3.98, 3.87, 3.7, 3.72, 3.14, 3.2, 2.91, 2.54, 2.54, 3.47, 2.24, 2.68, 3.13, 2.68, 2.17, 3.51, 5.82, 6.32, 6.53, 7.25, 7.91, 12.67, 7.0, 0.0, 4.36, 7.6, 7.56, 5.69, 4.73, 5.69, 5.78, 4.0, 0.66, -1.26, -1.26, -1.26, 0.58, 0.58, 0.58, 0.58, 0.58, 0.55, 0.55, 0.55, 0.59, 0.59, 0.59, 0.59, 0.59, 0.59, 0.59, 0.56, 0.56, 0.56, 0.56, 0.56, 0.56, 0.56, 0.56, 0.61, 0.57, 0.57, 0.58, 0.0, 0.0, 0.0, 0.56, 0.56, 0.57, 0.57, 1.1, 1.63, 1.73, 2.12, 2.29, 2.29, 2.29, 3.0, 2.8, 3.22, 3.22, 3.47, 3.84, 3.84, 3.84, 4.12, 4.12, 4.11, 3.49, 3.48, 3.48, 3.43, 3.35, 3.6, 3.39, 3.58, 3.58, 3.53, 3.53, 3.98, 3.87, 3.35, 3.35, 3.6, 3.32, 2.97, 2.97, 3.58, 2.68, 2.68, 3.13, 3.13, 2.24, 2.24, 3.83, 4.74, 5.38, 5.51, 5.45, 7.12, 10.33, 2.31, 1.88, 5.64, 6.8, 6.01, 4.07, 4.71, 4.87, 4.58, 2.35, 0.0, 0.0, 0.0, 0.58, 0.58, 0.58, 0.58, 0.55, 0.55, 0.55, 0.59, 0.59, 0.59, 0.59, 0.59, 0.59, 0.59, 0.56, 0.56, 0.56, 0.56, 0.56, 0.56, 0.56, 0.56, 0.61, 0.57, 0.57, 0.57, 0.53, 0.57, 0.0, 0.0, 0.0, 0.56, 0.61, 1.2, 1.1, 1.73, 1.73, 1.73, 1.63, 2.29, 2.29, 2.77, 3.0, 3.0, 3.45, 3.72, 3.47, 3.84, 3.84, 4.12, 4.12, 4.11, 3.49, 3.79, 3.48, 3.43, 2.84, 3.14, 3.2, 3.53, 3.13, 3.13, 3.53, 3.53, 3.39, 3.6, 3.35, 3.35, 3.07, 3.2, 2.97, 3.13, 3.58, 2.17, 2.24, 2.24, 1.79, 1.34, 1.7, 3.72, 4.03, 3.95, 4.0, 3.99, 7.48, 5.73, 1.9, 3.51, 5.2, 5.59, 4.87, 3.4, 3.37, 3.19, 2.31, 0.0, 0.0, 0.0, 0.58, 0.58, 0.58, 0.55, 0.55, 0.55, 0.55, 0.59, 0.59, 0.59, 0.59, 0.59, 0.59, 0.56, 0.56, 0.56, 0.56, 0.56, 0.56, 0.56, 0.61, 0.61, 0.61, 0.61, 0.57, 0.57, 0.53, 0.57, 0.0, 0.0, 0.0, 0.0, 0.61, 1.2, 1.1, 1.73, 1.61, 1.73, 1.73, 2.29, 2.29, 2.29, 2.77, 3.0, 3.45, 3.45, 3.72, 4.12, 3.84, 3.84, 4.12, 3.49, 3.49, 3.49, 3.48, 2.86, 3.16, 3.14, 3.07, 2.91, 3.07, 3.13, 3.13, 3.07, 3.09, 3.39, 3.6, 3.14, 2.79, 2.68, 2.6, 2.68, 2.68, 1.7, 1.7, 1.79, 1.79, 1.34, 1.34, 2.53, 3.33, 3.21, 3.14, 3.86, 5.77, 7.17, 4.6, 3.07, 4.12, 5.52, 4.96, 3.61, 2.11, 1.52, 0.79, 0.0, 0.0, 0.0, 0.58, 0.58, 0.0, 0.0, 0.0, 0.0, 0.59, 0.59, 0.56, 0.56, 0.56, 0.56, 0.56, 0.56, 0.56, 0.56, 0.56, 0.56, 0.56, 0.61, 0.57, 0.57, 0.57, 0.57, 0.57, 0.58, 0.58, 0.57, 0.0, 0.0, 0.0, 0.0, 0.57, 1.2, 1.1, 1.18, 1.09, 1.61, 1.73, 1.73, 2.29, 2.29, 2.77, 3.0, 3.45, 3.45, 3.45, 3.72, 3.84, 3.84, 3.47, 3.49, 3.49, 3.49, 2.86, 3.15, 2.86, 2.84, 2.79, 2.68, 2.91, 2.68, 2.68, 2.68, 2.68, 3.07, 2.91, 2.79, 2.53, 2.5, 2.6, 2.68, 2.68, 3.13, 1.7, 1.7, 1.34, 1.34, 1.34, 0.95, 2.6, 3.21, 3.23, 4.01, 5.69, 8.34, 7.01, 4.74, 4.74, 5.46, 5.54, 4.23, 2.76, 2.1, 0.68, 0.0, 0.0, 0.0, 0.0, 0.0, 0.0, 0.0, 0.0, 0.0, 0.0, 0.0, 0.0, 0.0, 0.0, 0.0, 0.0, 0.0, 0.0, 0.0, 0.0, 0.0, 0.0, 0.61, 0.57, 0.57, 0.57, 0.57, 0.57, 0.58, 0.58, 0.0, 0.0, 0.0, 0.0, 0.61, 0.57, 0.56, 1.18, 1.09, 1.09, 1.61, 1.73, 1.73, 2.12, 2.29, 2.77, 2.77, 3.45, 3.45, 3.45, 3.45, 3.72, 3.72, 3.47, 3.47, 3.49, 3.22, 3.12, 2.86, 2.86, 2.23, 2.23, 2.53, 2.5, 2.4, 2.17, 2.24, 2.24, 2.24, 2.6, 2.8, 2.5, 1.9, 2.0, 2.17, 2.6, 3.2, 1.86, 1.7, 1.34, 1.34, 1.2, 0.95, 0.88, 1.67, 2.34, 3.1, 5.47, 9.48, 9.99, 7.73, 6.53, 7.08, 6.77, 6.21, 4.84, 3.41, 1.42, 0.0, 0.0, 0.0, 0.0, 0.0, 0.0, 0.0, 0.0, 0.0, 0.0, 0.0, 0.0, 0.0, 0.0, 0.0, 0.0, 0.0, 0.0, 0.0, 0.0, 0.0, 0.0, 0.61, 0.57, 0.57, 0.57, 0.57, 0.57, 0.58, 0.58, 0.0, 0.0, 0.0, 0.0, 0.61, 0.57, 0.56, 1.18, 1.09, 1.09, 1.61, 1.73, 1.73, 2.12, 2.29, 2.77, 2.77, 3.45, 3.45, 3.45, 3.45, 3.72, 3.72, 3.47, 3.47, 3.49, 3.22, 3.12, 2.86, 2.86, 2.23, 2.23, 2.53, 2.5, 2.4, 2.17, 2.24, 2.24, 2.24, 2.6, 2.8, 2.5, 1.9, 2.0, 2.17, 2.6, 3.2, 1.86, 1.7, 1.34, 1.34, 1.2, 0.95, 0.88, 1.55, 2.39, 3.23, 5.41, 8.71, 10.23, 10.25, 8.46, 8.01, 7.79, 7.69, 6.79, 5.55, 3.91, 0.78, 0.78, 0.78]}]